Time,TemperatureF,DewpointF,PressureIn,WindDirection,WindDirectionDegrees,WindSpeedMPH,WindSpeedGustMPH,Humidity,HourlyPrecipIn,Conditions,Clouds,dailyrainin,SolarRadiationWatts/m^2,SoftwareType,DateUTC
2013-11-27 00:01:00,80.1,76.6,29.84,South,169,10.0,15.0,89,0.00,,FEW,0.23,0.00,VWS V14.01,2013-11-27 05:01:00,
2013-11-27 00:06:00,80.1,76.6,29.84,SSW,209,9.0,13.0,89,0.00,,FEW,0.00,0.00,VWS V14.01,2013-11-27 05:06:00,
2013-11-27 00:07:00,80.0,76.5,29.84,SW,230,7.0,13.0,89,0.00,,FEW,0.00,0.00,VWS V14.01,2013-11-27 05:07:00,
2013-11-27 00:11:00,80.0,76.5,29.84,SSW,213,7.0,7.0,89,0.00,,FEW,0.00,0.00,VWS V14.01,2013-11-27 05:11:00,
2013-11-27 00:12:00,80.0,76.5,29.84,SW,220,11.0,12.0,89,0.00,,FEW,0.00,0.00,VWS V14.01,2013-11-27 05:12:00,
2013-11-27 00:16:00,80.0,76.8,29.85,West,259,15.0,24.0,90,0.00,,FEW,0.00,0.00,VWS V14.01,2013-11-27 05:16:00,
2013-11-27 00:17:00,79.1,74.6,29.85,WSW,252,7.0,24.0,86,0.02,,FEW,0.02,0.00,VWS V14.01,2013-11-27 05:17:00,
2013-11-27 00:21:00,77.5,73.3,29.85,SW,234,7.0,24.0,87,0.06,,FEW,0.06,0.00,VWS V14.01,2013-11-27 05:21:00,
2013-11-27 00:22:00,76.9,72.7,29.85,West,267,5.0,18.0,87,0.10,,FEW,0.10,0.00,VWS V14.01,2013-11-27 05:22:00,
2013-11-27 00:26:00,75.6,71.5,29.85,SW,235,10.0,19.0,87,0.12,,FEW,0.12,0.00,VWS V14.01,2013-11-27 05:26:00,
2013-11-27 00:27:00,75.4,71.6,29.85,West,259,7.0,19.0,88,0.13,,FEW,0.13,0.00,VWS V14.01,2013-11-27 05:27:00,
2013-11-27 00:31:00,74.5,71.1,29.85,NW,312,11.0,11.0,89,0.16,,FEW,0.16,0.00,VWS V14.01,2013-11-27 05:31:00,
2013-11-27 00:32:00,74.4,71.3,29.85,WNW,290,8.0,17.0,90,0.17,,FEW,0.17,0.00,VWS V14.01,2013-11-27 05:32:00,
2013-11-27 00:33:00,74.1,71.0,29.85,WNW,293,17.0,17.0,90,0.18,,FEW,0.18,0.00,VWS V14.01,2013-11-27 05:33:00,
2013-11-27 00:36:00,73.7,70.6,29.85,SW,217,11.0,26.0,90,0.22,,FEW,0.22,0.00,VWS V14.01,2013-11-27 05:36:00,
2013-11-27 00:37:00,73.4,70.3,29.85,WNW,294,14.0,26.0,90,0.26,,FEW,0.26,0.00,VWS V14.01,2013-11-27 05:37:00,
2013-11-27 00:39:00,73.2,70.4,29.85,WSW,248,11.0,29.0,91,0.34,,FEW,0.34,0.00,VWS V14.01,2013-11-27 05:39:00,
2013-11-27 00:41:00,73.1,70.6,29.85,SSW,206,3.0,5.0,92,0.46,,FEW,0.46,0.00,VWS V14.01,2013-11-27 05:41:00,
2013-11-27 00:42:00,73.1,70.6,29.85,SW,228,4.0,6.0,92,0.52,,FEW,0.52,0.00,VWS V14.01,2013-11-27 05:42:00,
2013-11-27 00:44:00,73.0,70.5,29.85,SW,233,6.0,6.0,92,0.60,,FEW,0.60,0.00,VWS V14.01,2013-11-27 05:44:00,
2013-11-27 00:46:00,73.0,70.5,29.86,West,272,2.0,6.0,92,0.64,,FEW,0.64,0.00,VWS V14.01,2013-11-27 05:46:00,
2013-11-27 00:47:00,73.0,70.5,29.86,WSW,243,5.0,7.0,92,0.64,,FEW,0.64,0.00,VWS V14.01,2013-11-27 05:47:00,
2013-11-27 00:49:00,73.3,71.2,29.86,SW,235,3.0,9.0,93,0.66,,FEW,0.66,0.00,VWS V14.01,2013-11-27 05:49:00,
2013-11-27 00:51:00,73.5,71.4,29.86,SW,230,7.0,8.0,93,0.66,,FEW,0.66,0.00,VWS V14.01,2013-11-27 05:51:00,
2013-11-27 00:52:00,73.6,71.5,29.86,SW,223,4.0,9.0,93,0.66,,FEW,0.66,0.00,VWS V14.01,2013-11-27 05:52:00,
2013-11-27 00:55:00,73.9,71.8,29.86,SW,227,4.0,9.0,93,0.66,,FEW,0.66,0.00,VWS V14.01,2013-11-27 05:55:00,
2013-11-27 00:56:00,74.0,71.8,29.86,WSW,238,6.0,10.0,93,0.66,,FEW,0.66,0.00,VWS V14.01,2013-11-27 05:56:00,
2013-11-27 00:57:00,74.0,71.8,29.86,SW,232,4.0,10.0,93,0.66,,FEW,0.66,0.00,VWS V14.01,2013-11-27 05:57:00,
2013-11-27 00:58:00,74.1,71.9,29.86,SW,222,7.0,10.0,93,0.66,,FEW,0.66,0.00,VWS V14.01,2013-11-27 05:58:00,
2013-11-27 01:00:00,74.2,72.1,29.85,WSW,243,3.0,10.0,93,0.67,,FEW,0.67,0.00,VWS V14.01,2013-11-27 06:00:00,
2013-11-27 01:01:00,74.2,72.1,29.85,NW,313,2.0,8.0,93,0.67,,FEW,0.67,0.00,VWS V14.01,2013-11-27 06:01:00,
2013-11-27 01:02:00,74.2,72.1,29.85,West,259,6.0,8.0,93,0.67,,FEW,0.67,0.00,VWS V14.01,2013-11-27 06:02:00,
2013-11-27 01:03:00,74.2,72.1,29.85,WSW,258,3.0,8.0,93,0.67,,FEW,0.67,0.00,VWS V14.01,2013-11-27 06:03:00,
2013-11-27 01:05:00,74.1,71.9,29.85,WSW,240,5.0,8.0,93,0.67,,FEW,0.67,0.00,VWS V14.01,2013-11-27 06:05:00,
2013-11-27 01:06:00,74.1,71.9,29.85,West,265,2.0,8.0,93,0.67,,FEW,0.67,0.00,VWS V14.01,2013-11-27 06:06:00,
2013-11-27 01:07:00,74.1,71.9,29.85,West,274,6.0,8.0,93,0.67,,FEW,0.67,0.00,VWS V14.01,2013-11-27 06:07:00,
2013-11-27 01:08:00,74.0,71.8,29.85,SW,233,3.0,8.0,93,0.67,,FEW,0.67,0.00,VWS V14.01,2013-11-27 06:08:00,
2013-11-27 01:11:00,74.0,71.8,29.85,West,261,2.0,8.0,93,0.67,,FEW,0.67,0.00,VWS V14.01,2013-11-27 06:11:00,
2013-11-27 01:12:00,74.0,71.8,29.85,West,277,2.0,3.0,93,0.67,,FEW,0.67,0.00,VWS V14.01,2013-11-27 06:12:00,
2013-11-27 01:13:00,73.9,71.8,29.85,WNW,284,2.0,3.0,93,0.67,,FEW,0.67,0.00,VWS V14.01,2013-11-27 06:13:00,
2013-11-27 01:16:00,73.9,71.8,29.84,WNW,283,1.0,5.0,93,0.67,,FEW,0.67,0.00,VWS V14.01,2013-11-27 06:16:00,
2013-11-27 01:17:00,73.9,71.8,29.84,West,267,1.0,5.0,93,0.67,,FEW,0.67,0.00,VWS V14.01,2013-11-27 06:17:00,
2013-11-27 01:18:00,73.9,71.8,29.84,West,267,1.0,5.0,93,0.67,,FEW,0.67,0.00,VWS V14.01,2013-11-27 06:18:00,
2013-11-27 01:19:00,73.9,71.8,29.84,West,267,1.0,5.0,93,0.67,,FEW,0.67,0.00,VWS V14.01,2013-11-27 06:19:00,
2013-11-27 01:21:00,73.9,72.1,29.84,West,269,0.0,1.0,94,0.61,,FEW,0.67,0.00,VWS V14.01,2013-11-27 06:21:00,
2013-11-27 01:22:00,73.9,72.1,29.84,West,271,0.0,2.0,94,0.61,,FEW,0.67,0.00,VWS V14.01,2013-11-27 06:22:00,
2013-11-27 01:23:00,73.9,72.1,29.84,West,271,0.0,2.0,94,0.61,,FEW,0.67,0.00,VWS V14.01,2013-11-27 06:23:00,
2013-11-27 01:24:00,73.9,72.1,29.84,West,271,1.0,2.0,94,0.61,,FEW,0.67,0.00,VWS V14.01,2013-11-27 06:24:00,
2013-11-27 01:26:00,73.9,72.1,29.84,West,273,0.0,2.0,94,0.61,,FEW,0.67,0.00,VWS V14.01,2013-11-27 06:26:00,
2013-11-27 01:27:00,73.9,72.1,29.84,West,273,1.0,2.0,94,0.61,,FEW,0.67,0.00,VWS V14.01,2013-11-27 06:27:00,
2013-11-27 01:28:00,73.9,72.1,29.84,WSW,250,3.0,3.0,94,0.61,,FEW,0.67,0.00,VWS V14.01,2013-11-27 06:28:00,
2013-11-27 01:29:00,74.0,72.2,29.84,WSW,251,2.0,5.0,94,0.62,,FEW,0.68,0.00,VWS V14.01,2013-11-27 06:29:00,
2013-11-27 01:31:00,74.0,72.2,29.84,WSW,241,5.0,5.0,94,0.53,,FEW,0.69,0.00,VWS V14.01,2013-11-27 06:31:00,
2013-11-27 01:32:00,74.0,72.2,29.84,SW,235,5.0,5.0,94,0.54,,FEW,0.70,0.00,VWS V14.01,2013-11-27 06:32:00,
2013-11-27 01:33:00,74.1,72.3,29.84,SW,227,4.0,5.0,94,0.55,,FEW,0.71,0.00,VWS V14.01,2013-11-27 06:33:00,
2013-11-27 01:35:00,74.2,72.4,29.84,SW,226,2.0,6.0,94,0.59,,FEW,0.75,0.00,VWS V14.01,2013-11-27 06:35:00,
2013-11-27 01:36:00,74.2,72.4,29.84,WSW,257,6.0,6.0,94,0.61,,FEW,0.77,0.00,VWS V14.01,2013-11-27 06:36:00,
2013-11-27 01:37:00,74.2,72.4,29.84,WSW,248,3.0,6.0,94,0.63,,FEW,0.79,0.00,VWS V14.01,2013-11-27 06:37:00,
2013-11-27 01:38:00,74.2,72.4,29.84,West,259,2.0,6.0,94,0.64,,FEW,0.80,0.00,VWS V14.01,2013-11-27 06:38:00,
2013-11-27 01:40:00,74.2,72.4,29.84,West,272,3.0,10.0,94,0.65,,FEW,0.81,0.00,VWS V14.01,2013-11-27 06:40:00,
2013-11-27 01:41:00,74.1,72.3,29.84,SSW,207,5.0,8.0,94,0.41,,FEW,0.85,0.00,VWS V14.01,2013-11-27 06:41:00,
2013-11-27 01:42:00,74.0,72.2,29.84,SW,227,6.0,8.0,94,0.42,,FEW,0.86,0.00,VWS V14.01,2013-11-27 06:42:00,
2013-11-27 01:43:00,73.9,72.1,29.84,WSW,251,4.0,8.0,94,0.45,,FEW,0.89,0.00,VWS V14.01,2013-11-27 06:43:00,
2013-11-27 01:45:00,73.6,71.8,29.83,SW,225,3.0,8.0,94,0.47,,FEW,0.91,0.00,VWS V14.01,2013-11-27 06:45:00,
2013-11-27 01:46:00,73.5,71.7,29.83,WSW,250,3.0,8.0,94,0.47,,FEW,0.91,0.00,VWS V14.01,2013-11-27 06:46:00,
2013-11-27 01:47:00,73.4,71.6,29.83,SSW,200,4.0,8.0,94,0.48,,FEW,0.92,0.00,VWS V14.01,2013-11-27 06:47:00,
2013-11-27 01:48:00,73.3,71.5,29.83,SW,225,5.0,8.0,94,0.48,,FEW,0.92,0.00,VWS V14.01,2013-11-27 06:48:00,
2013-11-27 01:51:00,73.1,71.3,29.83,West,275,2.0,4.0,94,0.26,,FEW,0.92,0.00,VWS V14.01,2013-11-27 06:51:00,
2013-11-27 01:52:00,73.1,71.3,29.83,WSW,242,2.0,4.0,94,0.26,,FEW,0.92,0.00,VWS V14.01,2013-11-27 06:52:00,
2013-11-27 01:53:00,73.1,71.3,29.83,West,260,2.0,4.0,94,0.26,,FEW,0.92,0.00,VWS V14.01,2013-11-27 06:53:00,
2013-11-27 01:56:00,73.0,71.2,29.83,West,260,2.0,4.0,94,0.27,,FEW,0.93,0.00,VWS V14.01,2013-11-27 06:56:00,
2013-11-27 01:57:00,73.0,71.2,29.83,WSW,246,1.0,4.0,94,0.27,,FEW,0.93,0.00,VWS V14.01,2013-11-27 06:57:00,
2013-11-27 01:58:00,73.0,71.2,29.83,West,263,3.0,4.0,94,0.28,,FEW,0.94,0.00,VWS V14.01,2013-11-27 06:58:00,
2013-11-27 01:59:00,73.0,71.2,29.83,West,263,3.0,4.0,94,0.29,,FEW,0.95,0.00,VWS V14.01,2013-11-27 06:59:00,
2013-11-27 02:02:00,72.8,71.0,29.84,SW,220,4.0,10.0,94,0.33,,FEW,1.00,0.00,VWS V14.01,2013-11-27 07:02:00,
2013-11-27 02:03:00,72.8,71.0,29.84,SSW,213,5.0,10.0,94,0.34,,FEW,1.01,0.00,VWS V14.01,2013-11-27 07:03:00,
2013-11-27 02:04:00,72.7,70.9,29.84,SW,235,3.0,10.0,94,0.35,,FEW,1.02,0.00,VWS V14.01,2013-11-27 07:04:00,
2013-11-27 02:05:00,72.6,70.8,29.84,SSW,211,3.0,10.0,94,0.37,,FEW,1.04,0.00,VWS V14.01,2013-11-27 07:05:00,
2013-11-27 02:07:00,72.5,70.7,29.84,SSW,213,6.0,10.0,94,0.39,,FEW,1.06,0.00,VWS V14.01,2013-11-27 07:07:00,
2013-11-27 02:08:00,72.5,70.7,29.84,SW,222,2.0,10.0,94,0.40,,FEW,1.07,0.00,VWS V14.01,2013-11-27 07:08:00,
2013-11-27 02:09:00,72.5,70.7,29.84,SW,223,2.0,10.0,94,0.42,,FEW,1.09,0.00,VWS V14.01,2013-11-27 07:09:00,
2013-11-27 02:10:00,72.5,70.7,29.84,WSW,257,2.0,10.0,94,0.44,,FEW,1.11,0.00,VWS V14.01,2013-11-27 07:10:00,
2013-11-27 02:12:00,72.5,71.0,29.84,SSW,212,6.0,6.0,95,0.47,,FEW,1.14,0.00,VWS V14.01,2013-11-27 07:12:00,
2013-11-27 02:13:00,72.5,71.0,29.84,SSW,212,1.0,6.0,95,0.47,,FEW,1.14,0.00,VWS V14.01,2013-11-27 07:13:00,
2013-11-27 02:14:00,72.5,71.0,29.84,SW,232,6.0,8.0,95,0.48,,FEW,1.15,0.00,VWS V14.01,2013-11-27 07:14:00,
2013-11-27 02:15:00,72.6,71.1,29.83,WSW,254,4.0,8.0,95,0.48,,FEW,1.15,0.00,VWS V14.01,2013-11-27 07:15:00,
2013-11-27 02:18:00,72.5,71.0,29.83,WSW,237,6.0,8.0,95,0.48,,FEW,1.15,0.00,VWS V14.01,2013-11-27 07:18:00,
2013-11-27 02:19:00,72.5,71.0,29.83,WSW,258,5.0,8.0,95,0.48,,FEW,1.15,0.00,VWS V14.01,2013-11-27 07:19:00,
2013-11-27 02:20:00,72.4,70.9,29.83,WSW,249,4.0,8.0,95,0.48,,FEW,1.15,0.00,VWS V14.01,2013-11-27 07:20:00,
2013-11-27 02:23:00,72.4,70.9,29.83,West,264,0.0,4.0,95,0.48,,FEW,1.15,0.00,VWS V14.01,2013-11-27 07:23:00,
2013-11-27 02:24:00,72.4,70.9,29.83,WSW,250,7.0,7.0,95,0.49,,FEW,1.16,0.00,VWS V14.01,2013-11-27 07:24:00,
2013-11-27 02:25:00,72.3,70.8,29.83,West,261,6.0,7.0,95,0.49,,FEW,1.16,0.00,VWS V14.01,2013-11-27 07:25:00,
2013-11-27 02:26:00,72.3,70.8,29.83,WSW,246,2.0,7.0,95,0.49,,FEW,1.16,0.00,VWS V14.01,2013-11-27 07:26:00,
2013-11-27 02:28:00,72.2,70.7,29.83,SW,218,1.0,7.0,95,0.49,,FEW,1.16,0.00,VWS V14.01,2013-11-27 07:28:00,
2013-11-27 02:29:00,72.2,70.7,29.83,SW,221,2.0,7.0,95,0.49,,FEW,1.16,0.00,VWS V14.01,2013-11-27 07:29:00,
2013-11-27 02:30:00,72.3,70.8,29.83,SSW,205,4.0,7.0,95,0.49,,FEW,1.16,0.00,VWS V14.01,2013-11-27 07:30:00,
2013-11-27 02:31:00,72.3,70.8,29.83,SW,232,3.0,7.0,95,0.49,,FEW,1.16,0.00,VWS V14.01,2013-11-27 07:31:00,
2013-11-27 02:33:00,72.4,70.9,29.83,SW,218,4.0,8.0,95,0.48,,FEW,1.17,0.00,VWS V14.01,2013-11-27 07:33:00,
2013-11-27 02:34:00,72.4,70.9,29.83,SW,232,2.0,8.0,95,0.48,,FEW,1.17,0.00,VWS V14.01,2013-11-27 07:34:00,
2013-11-27 02:35:00,72.5,71.0,29.83,SSW,196,3.0,8.0,95,0.48,,FEW,1.17,0.00,VWS V14.01,2013-11-27 07:35:00,
2013-11-27 02:36:00,72.5,71.0,29.83,SW,217,6.0,8.0,95,0.49,,FEW,1.18,0.00,VWS V14.01,2013-11-27 07:36:00,
2013-11-27 02:38:00,72.5,71.0,29.83,SW,219,3.0,8.0,95,0.49,,FEW,1.18,0.00,VWS V14.01,2013-11-27 07:38:00,
2013-11-27 02:39:00,72.5,71.0,29.83,South,185,4.0,8.0,95,0.50,,FEW,1.19,0.00,VWS V14.01,2013-11-27 07:39:00,
2013-11-27 02:40:00,72.6,71.1,29.83,SW,219,4.0,8.0,95,0.50,,FEW,1.19,0.00,VWS V14.01,2013-11-27 07:40:00,
2013-11-27 02:41:00,72.6,71.1,29.83,SW,216,4.0,8.0,95,0.50,,FEW,1.19,0.00,VWS V14.01,2013-11-27 07:41:00,
2013-11-27 02:43:00,72.6,71.1,29.83,SW,227,3.0,9.0,95,0.37,,FEW,1.19,0.00,VWS V14.01,2013-11-27 07:43:00,
2013-11-27 02:44:00,72.7,71.2,29.83,SW,219,2.0,9.0,95,0.37,,FEW,1.19,0.00,VWS V14.01,2013-11-27 07:44:00,
2013-11-27 02:46:00,72.8,71.3,29.83,SW,216,9.0,9.0,95,0.38,,FEW,1.20,0.00,VWS V14.01,2013-11-27 07:46:00,
2013-11-27 02:48:00,72.9,71.4,29.83,West,263,5.0,10.0,95,0.38,,FEW,1.20,0.00,VWS V14.01,2013-11-27 07:48:00,
2013-11-27 02:49:00,72.9,71.4,29.83,SW,229,5.0,10.0,95,0.38,,FEW,1.20,0.00,VWS V14.01,2013-11-27 07:49:00,
2013-11-27 02:51:00,72.8,71.3,29.83,WSW,252,1.0,2.0,95,0.29,,FEW,1.21,0.00,VWS V14.01,2013-11-27 07:51:00,
2013-11-27 02:53:00,72.8,71.3,29.83,West,279,2.0,4.0,95,0.31,,FEW,1.23,0.00,VWS V14.01,2013-11-27 07:53:00,
2013-11-27 02:54:00,72.8,71.3,29.83,West,267,4.0,5.0,95,0.32,,FEW,1.24,0.00,VWS V14.01,2013-11-27 07:54:00,
2013-11-27 02:56:00,72.8,71.3,29.83,West,275,1.0,5.0,95,0.32,,FEW,1.24,0.00,VWS V14.01,2013-11-27 07:56:00,
2013-11-27 02:58:00,72.7,71.2,29.83,West,275,1.0,5.0,95,0.32,,FEW,1.24,0.00,VWS V14.01,2013-11-27 07:58:00,
2013-11-27 02:59:00,72.7,71.2,29.83,West,275,0.0,5.0,95,0.32,,FEW,1.24,0.00,VWS V14.01,2013-11-27 07:59:00,
2013-11-27 03:01:00,72.7,71.2,29.82,West,267,3.0,5.0,95,0.26,,FEW,1.25,0.00,VWS V14.01,2013-11-27 08:01:00,
2013-11-27 03:02:00,72.7,71.2,29.82,West,261,4.0,6.0,95,0.26,,FEW,1.25,0.00,VWS V14.01,2013-11-27 08:02:00,
2013-11-27 03:03:00,72.6,71.1,29.82,WNW,285,4.0,6.0,95,0.26,,FEW,1.25,0.00,VWS V14.01,2013-11-27 08:03:00,
2013-11-27 03:04:00,72.6,71.1,29.82,WNW,288,3.0,6.0,95,0.26,,FEW,1.25,0.00,VWS V14.01,2013-11-27 08:04:00,
2013-11-27 03:06:00,72.5,71.0,29.82,West,267,1.0,6.0,95,0.26,,FEW,1.25,0.00,VWS V14.01,2013-11-27 08:06:00,
2013-11-27 03:07:00,72.5,71.0,29.82,West,280,3.0,6.0,95,0.26,,FEW,1.25,0.00,VWS V14.01,2013-11-27 08:07:00,
2013-11-27 03:09:00,72.5,71.0,29.82,West,262,1.0,6.0,95,0.26,,FEW,1.25,0.00,VWS V14.01,2013-11-27 08:09:00,
2013-11-27 03:10:00,72.5,71.0,29.82,West,263,2.0,6.0,95,0.26,,FEW,1.25,0.00,VWS V14.01,2013-11-27 08:10:00,
2013-11-27 03:11:00,72.4,70.9,29.82,West,262,1.0,2.0,95,0.14,,FEW,1.26,0.00,VWS V14.01,2013-11-27 08:11:00,
2013-11-27 03:12:00,72.4,70.9,29.82,West,261,1.0,2.0,95,0.14,,FEW,1.26,0.00,VWS V14.01,2013-11-27 08:12:00,
2013-11-27 03:13:00,72.4,70.9,29.82,West,259,0.0,2.0,95,0.17,,FEW,1.29,0.00,VWS V14.01,2013-11-27 08:13:00,
2013-11-27 03:14:00,72.4,70.9,29.82,West,259,0.0,2.0,95,0.18,,FEW,1.30,0.00,VWS V14.01,2013-11-27 08:14:00,
2013-11-27 03:15:00,72.4,70.9,29.82,West,259,0.0,2.0,95,0.19,,FEW,1.31,0.00,VWS V14.01,2013-11-27 08:15:00,
2013-11-27 03:17:00,72.4,70.9,29.82,West,259,0.0,2.0,95,0.20,,FEW,1.32,0.00,VWS V14.01,2013-11-27 08:17:00,
2013-11-27 03:19:00,72.3,70.8,29.82,SW,228,3.0,3.0,95,0.23,,FEW,1.35,0.00,VWS V14.01,2013-11-27 08:19:00,
2013-11-27 03:20:00,72.3,70.8,29.82,SW,234,0.0,3.0,95,0.23,,FEW,1.35,0.00,VWS V14.01,2013-11-27 08:20:00,
2013-11-27 03:22:00,72.3,70.8,29.82,WNW,294,4.0,4.0,95,0.21,,FEW,1.36,0.00,VWS V14.01,2013-11-27 08:22:00,
2013-11-27 03:23:00,72.4,70.9,29.82,WNW,294,1.0,4.0,95,0.21,,FEW,1.36,0.00,VWS V14.01,2013-11-27 08:23:00,
2013-11-27 03:24:00,72.3,70.8,29.82,NW,315,4.0,4.0,95,0.23,,FEW,1.38,0.00,VWS V14.01,2013-11-27 08:24:00,
2013-11-27 03:25:00,72.3,70.8,29.82,NW,315,2.0,4.0,95,0.24,,FEW,1.39,0.00,VWS V14.01,2013-11-27 08:25:00,
2013-11-27 03:27:00,72.4,71.2,29.82,NW,315,1.0,4.0,96,0.26,,FEW,1.41,0.00,VWS V14.01,2013-11-27 08:27:00,
2013-11-27 03:28:00,72.4,71.2,29.82,NW,315,2.0,4.0,96,0.26,,FEW,1.41,0.00,VWS V14.01,2013-11-27 08:28:00,
2013-11-27 03:29:00,72.4,71.2,29.82,NW,315,2.0,4.0,96,0.27,,FEW,1.42,0.00,VWS V14.01,2013-11-27 08:29:00,
2013-11-27 03:30:00,72.3,71.1,29.80,NW,315,1.0,4.0,96,0.27,,FEW,1.42,0.00,VWS V14.01,2013-11-27 08:30:00,
2013-11-27 03:32:00,72.4,71.2,29.80,NW,315,0.0,2.0,96,0.27,,FEW,1.43,0.00,VWS V14.01,2013-11-27 08:32:00,
2013-11-27 03:33:00,72.4,71.2,29.80,NW,315,0.0,2.0,96,0.27,,FEW,1.43,0.00,VWS V14.01,2013-11-27 08:33:00,
2013-11-27 03:34:00,72.4,71.2,29.80,NW,315,0.0,2.0,96,0.27,,FEW,1.43,0.00,VWS V14.01,2013-11-27 08:34:00,
2013-11-27 03:35:00,72.4,71.2,29.80,NW,315,0.0,2.0,96,0.27,,FEW,1.43,0.00,VWS V14.01,2013-11-27 08:35:00,
2013-11-27 03:36:00,72.4,71.2,29.80,NW,315,0.0,2.0,96,0.27,,FEW,1.43,0.00,VWS V14.01,2013-11-27 08:36:00,
2013-11-27 03:37:00,72.4,71.2,29.80,NW,315,0.0,2.0,96,0.27,,FEW,1.43,0.00,VWS V14.01,2013-11-27 08:37:00,
2013-11-27 03:38:00,72.4,71.2,29.80,NW,315,0.0,2.0,96,0.27,,FEW,1.43,0.00,VWS V14.01,2013-11-27 08:38:00,
2013-11-27 03:39:00,72.4,71.2,29.80,NW,315,0.0,2.0,96,0.27,,FEW,1.43,0.00,VWS V14.01,2013-11-27 08:39:00,
2013-11-27 03:40:00,72.4,71.2,29.80,NW,315,1.0,2.0,96,0.27,,FEW,1.43,0.00,VWS V14.01,2013-11-27 08:40:00,
2013-11-27 03:41:00,72.4,71.2,29.80,NW,315,1.0,1.0,96,0.24,,FEW,1.43,0.00,VWS V14.01,2013-11-27 08:41:00,
2013-11-27 03:43:00,72.5,71.3,29.80,NW,315,0.0,1.0,96,0.24,,FEW,1.43,0.00,VWS V14.01,2013-11-27 08:43:00,
2013-11-27 03:44:00,72.5,71.3,29.80,NW,315,0.0,1.0,96,0.25,,FEW,1.44,0.00,VWS V14.01,2013-11-27 08:44:00,
2013-11-27 03:45:00,72.5,71.3,29.81,NW,315,0.0,1.0,96,0.25,,FEW,1.44,0.00,VWS V14.01,2013-11-27 08:45:00,
2013-11-27 03:47:00,72.6,71.4,29.81,NW,315,1.0,1.0,96,0.25,,FEW,1.44,0.00,VWS V14.01,2013-11-27 08:47:00,
2013-11-27 03:48:00,72.6,71.4,29.81,NW,315,0.0,1.0,96,0.25,,FEW,1.44,0.00,VWS V14.01,2013-11-27 08:48:00,
2013-11-27 03:49:00,72.6,71.4,29.81,NW,315,0.0,1.0,96,0.25,,FEW,1.44,0.00,VWS V14.01,2013-11-27 08:49:00,
2013-11-27 03:50:00,72.7,71.5,29.81,NW,315,0.0,1.0,96,0.25,,FEW,1.44,0.00,VWS V14.01,2013-11-27 08:50:00,
2013-11-27 03:52:00,72.6,71.4,29.81,WNW,299,1.0,2.0,96,0.24,,FEW,1.45,0.00,VWS V14.01,2013-11-27 08:52:00,
2013-11-27 03:53:00,72.7,71.5,29.81,WNW,298,1.0,2.0,96,0.24,,FEW,1.45,0.00,VWS V14.01,2013-11-27 08:53:00,
2013-11-27 03:54:00,72.7,71.5,29.81,WNW,298,0.0,2.0,96,0.24,,FEW,1.45,0.00,VWS V14.01,2013-11-27 08:54:00,
2013-11-27 03:55:00,72.8,71.6,29.81,WNW,296,0.0,2.0,96,0.24,,FEW,1.45,0.00,VWS V14.01,2013-11-27 08:55:00,
2013-11-27 03:57:00,72.9,71.7,29.81,West,269,3.0,3.0,96,0.25,,FEW,1.46,0.00,VWS V14.01,2013-11-27 08:57:00,
2013-11-27 03:59:00,73.0,71.8,29.81,WSW,251,3.0,3.0,96,0.26,,FEW,1.47,0.00,VWS V14.01,2013-11-27 08:59:00,
2013-11-27 04:01:00,73.0,71.8,29.83,West,262,1.0,1.0,96,0.23,,FEW,1.48,0.00,VWS V14.01,2013-11-27 09:01:00,
2013-11-27 04:02:00,73.1,71.9,29.83,West,262,0.0,1.0,96,0.25,,FEW,1.50,0.00,VWS V14.01,2013-11-27 09:02:00,
2013-11-27 04:04:00,73.1,71.9,29.83,West,262,1.0,3.0,96,0.25,,FEW,1.50,0.00,VWS V14.01,2013-11-27 09:04:00,
2013-11-27 04:05:00,73.1,71.9,29.83,West,261,1.0,3.0,96,0.26,,FEW,1.51,0.00,VWS V14.01,2013-11-27 09:05:00,
2013-11-27 04:06:00,73.1,71.9,29.83,West,261,0.0,3.0,96,0.26,,FEW,1.51,0.00,VWS V14.01,2013-11-27 09:06:00,
2013-11-27 04:07:00,73.1,71.9,29.83,West,261,1.0,3.0,96,0.27,,FEW,1.52,0.00,VWS V14.01,2013-11-27 09:07:00,
2013-11-27 04:09:00,73.1,71.9,29.83,West,272,0.0,3.0,96,0.27,,FEW,1.52,0.00,VWS V14.01,2013-11-27 09:09:00,
2013-11-27 04:10:00,73.1,71.9,29.83,West,273,2.0,3.0,96,0.28,,FEW,1.53,0.00,VWS V14.01,2013-11-27 09:10:00,
2013-11-27 04:11:00,73.1,71.9,29.83,West,279,0.0,1.0,96,0.28,,FEW,1.53,0.00,VWS V14.01,2013-11-27 09:11:00,
2013-11-27 04:13:00,73.1,71.9,29.83,West,279,0.0,1.0,96,0.29,,FEW,1.54,0.00,VWS V14.01,2013-11-27 09:13:00,
2013-11-27 04:14:00,73.1,71.9,29.83,West,279,0.0,1.0,96,0.29,,FEW,1.54,0.00,VWS V14.01,2013-11-27 09:14:00,
2013-11-27 04:15:00,73.1,71.9,29.83,West,279,0.0,1.0,96,0.29,,FEW,1.54,0.00,VWS V14.01,2013-11-27 09:15:00,
2013-11-27 04:16:00,73.1,71.9,29.83,WSW,258,2.0,2.0,96,0.30,,FEW,1.55,0.00,VWS V14.01,2013-11-27 09:16:00,
2013-11-27 04:18:00,73.1,71.9,29.83,WSW,256,0.0,2.0,96,0.31,,FEW,1.56,0.00,VWS V14.01,2013-11-27 09:18:00,
2013-11-27 04:19:00,73.0,71.8,29.83,WSW,256,1.0,2.0,96,0.32,,FEW,1.57,0.00,VWS V14.01,2013-11-27 09:19:00,
2013-11-27 04:20:00,73.0,71.8,29.83,WSW,256,1.0,2.0,96,0.32,,FEW,1.57,0.00,VWS V14.01,2013-11-27 09:20:00,
2013-11-27 04:21:00,73.0,71.8,29.83,WSW,240,0.0,0.0,96,0.22,,FEW,1.57,0.00,VWS V14.01,2013-11-27 09:21:00,
2013-11-27 04:23:00,73.0,71.8,29.83,South,190,2.0,5.0,96,0.23,,FEW,1.58,0.00,VWS V14.01,2013-11-27 09:23:00,
2013-11-27 04:24:00,73.0,71.8,29.83,SSW,197,4.0,5.0,96,0.23,,FEW,1.58,0.00,VWS V14.01,2013-11-27 09:24:00,
2013-11-27 04:25:00,73.0,71.8,29.83,SSW,197,5.0,6.0,96,0.23,,FEW,1.58,0.00,VWS V14.01,2013-11-27 09:25:00,
2013-11-27 04:26:00,73.0,71.8,29.83,South,181,3.0,6.0,96,0.23,,FEW,1.58,0.00,VWS V14.01,2013-11-27 09:26:00,
2013-11-27 04:27:00,73.0,71.8,29.83,SSW,192,2.0,6.0,96,0.24,,FEW,1.59,0.00,VWS V14.01,2013-11-27 09:27:00,
2013-11-27 04:29:00,73.0,71.8,29.83,SSW,198,1.0,6.0,96,0.24,,FEW,1.59,0.00,VWS V14.01,2013-11-27 09:29:00,
2013-11-27 04:30:00,73.0,71.8,29.82,SSW,198,3.0,6.0,96,0.24,,FEW,1.59,0.00,VWS V14.01,2013-11-27 09:30:00,
2013-11-27 04:31:00,73.0,71.8,29.82,SSW,198,4.0,4.0,96,0.17,,FEW,1.59,0.00,VWS V14.01,2013-11-27 09:31:00,
2013-11-27 04:32:00,73.0,71.8,29.82,SSW,198,4.0,4.0,96,0.17,,FEW,1.59,0.00,VWS V14.01,2013-11-27 09:32:00,
2013-11-27 04:35:00,73.1,71.9,29.82,SSW,206,5.0,5.0,96,0.18,,FEW,1.60,0.00,VWS V14.01,2013-11-27 09:35:00,
2013-11-27 04:36:00,73.1,71.9,29.82,South,186,3.0,5.0,96,0.18,,FEW,1.60,0.00,VWS V14.01,2013-11-27 09:36:00,
2013-11-27 04:37:00,73.1,71.9,29.82,SSW,201,3.0,5.0,96,0.18,,FEW,1.61,0.00,VWS V14.01,2013-11-27 09:37:00,
2013-11-27 04:40:00,73.1,71.9,29.82,SSW,207,4.0,6.0,96,0.19,,FEW,1.61,0.00,VWS V14.01,2013-11-27 09:40:00,
2013-11-27 04:42:00,73.1,71.9,29.82,SSW,202,3.0,5.0,96,0.18,,FEW,1.61,0.00,VWS V14.01,2013-11-27 09:42:00,
2013-11-27 04:45:00,73.1,71.9,29.83,SSW,206,5.0,6.0,96,0.19,,FEW,1.62,0.00,VWS V14.01,2013-11-27 09:45:00,
2013-11-27 04:47:00,73.1,71.9,29.83,SW,221,3.0,6.0,96,0.19,,FEW,1.62,0.00,VWS V14.01,2013-11-27 09:47:00,
2013-11-27 04:50:00,73.0,71.8,29.83,SSW,199,3.0,7.0,96,0.20,,FEW,1.63,0.00,VWS V14.01,2013-11-27 09:50:00,
2013-11-27 04:52:00,72.9,71.7,29.83,SSW,208,5.0,8.0,96,0.19,,FEW,1.63,0.00,VWS V14.01,2013-11-27 09:52:00,
2013-11-27 04:55:00,72.8,71.6,29.83,SW,220,4.0,8.0,96,0.20,,FEW,1.64,0.00,VWS V14.01,2013-11-27 09:55:00,
2013-11-27 04:56:00,72.8,71.6,29.83,South,177,8.0,8.0,96,0.20,,FEW,1.64,0.00,VWS V14.01,2013-11-27 09:56:00,
2013-11-27 04:57:00,72.8,71.6,29.83,SW,221,3.0,8.0,96,0.20,,FEW,1.64,0.00,VWS V14.01,2013-11-27 09:57:00,
2013-11-27 05:00:00,72.9,71.7,29.83,SSW,200,4.0,8.0,96,0.21,,FEW,1.65,0.00,VWS V14.01,2013-11-27 10:00:00,
2013-11-27 05:01:00,72.9,71.7,29.83,SE,146,7.0,8.0,96,0.21,,FEW,1.65,0.00,VWS V14.01,2013-11-27 10:01:00,
2013-11-27 05:02:00,72.9,71.7,29.83,SSW,206,3.0,7.0,96,0.18,,FEW,1.66,0.00,VWS V14.01,2013-11-27 10:02:00,
2013-11-27 05:03:00,72.9,71.7,29.83,South,186,5.0,7.0,96,0.18,,FEW,1.66,0.00,VWS V14.01,2013-11-27 10:03:00,
2013-11-27 05:06:00,72.9,71.7,29.83,SSW,209,5.0,8.0,96,0.18,,FEW,1.66,0.00,VWS V14.01,2013-11-27 10:06:00,
2013-11-27 05:07:00,73.0,71.8,29.83,SW,217,6.0,9.0,96,0.19,,FEW,1.67,0.00,VWS V14.01,2013-11-27 10:07:00,
2013-11-27 05:08:00,73.0,71.8,29.83,SSW,200,4.0,9.0,96,0.19,,FEW,1.67,0.00,VWS V14.01,2013-11-27 10:08:00,
2013-11-27 05:11:00,73.1,71.9,29.83,SSW,200,3.0,4.0,96,0.14,,FEW,1.67,0.00,VWS V14.01,2013-11-27 10:11:00,
2013-11-27 05:12:00,73.2,72.0,29.83,SW,224,4.0,7.0,96,0.15,,FEW,1.68,0.00,VWS V14.01,2013-11-27 10:12:00,
2013-11-27 05:13:00,73.2,72.0,29.83,SSW,213,5.0,7.0,96,0.15,,FEW,1.68,0.00,VWS V14.01,2013-11-27 10:13:00,
2013-11-27 05:16:00,73.1,71.9,29.84,SW,232,6.0,9.0,96,0.16,,FEW,1.69,0.00,VWS V14.01,2013-11-27 10:16:00,
2013-11-27 05:18:00,73.0,71.8,29.84,SSW,207,4.0,9.0,96,0.17,,FEW,1.70,0.00,VWS V14.01,2013-11-27 10:18:00,
2013-11-27 05:21:00,72.9,71.7,29.84,SSW,196,6.0,6.0,96,0.14,,FEW,1.71,0.00,VWS V14.01,2013-11-27 10:21:00,
2013-11-27 05:23:00,72.9,71.7,29.84,SSW,192,4.0,7.0,96,0.14,,FEW,1.71,0.00,VWS V14.01,2013-11-27 10:23:00,
2013-11-27 05:26:00,73.1,71.9,29.84,SSW,200,6.0,8.0,96,0.16,,FEW,1.73,0.00,VWS V14.01,2013-11-27 10:26:00,
2013-11-27 05:27:00,73.1,71.9,29.84,SW,217,7.0,8.0,96,0.16,,FEW,1.73,0.00,VWS V14.01,2013-11-27 10:27:00,
2013-11-27 05:28:00,73.1,71.9,29.84,SSW,207,7.0,9.0,96,0.16,,FEW,1.73,0.00,VWS V14.01,2013-11-27 10:28:00,
2013-11-27 05:31:00,73.1,71.9,29.83,South,186,0.0,5.0,96,0.14,,FEW,1.73,0.00,VWS V14.01,2013-11-27 10:31:00,
2013-11-27 05:32:00,73.1,71.9,29.83,South,180,5.0,5.0,96,0.15,,FEW,1.74,0.00,VWS V14.01,2013-11-27 10:32:00,
2013-11-27 05:33:00,73.1,71.9,29.83,South,190,3.0,5.0,96,0.15,,FEW,1.74,0.00,VWS V14.01,2013-11-27 10:33:00,
2013-11-27 05:36:00,73.1,71.9,29.83,SSE,165,0.0,5.0,96,0.15,,FEW,1.74,0.00,VWS V14.01,2013-11-27 10:36:00,
2013-11-27 05:37:00,73.1,71.9,29.83,SSE,165,1.0,5.0,96,0.16,,FEW,1.75,0.00,VWS V14.01,2013-11-27 10:37:00,
2013-11-27 05:38:00,73.1,71.9,29.83,South,171,1.0,5.0,96,0.16,,FEW,1.75,0.00,VWS V14.01,2013-11-27 10:38:00,
2013-11-27 05:41:00,73.1,71.9,29.83,South,179,2.0,5.0,96,0.14,,FEW,1.75,0.00,VWS V14.01,2013-11-27 10:41:00,
2013-11-27 05:42:00,73.1,71.9,29.83,SSW,204,3.0,5.0,96,0.14,,FEW,1.75,0.00,VWS V14.01,2013-11-27 10:42:00,
2013-11-27 05:44:00,73.1,71.9,29.83,South,184,3.0,5.0,96,0.14,,FEW,1.75,0.00,VWS V14.01,2013-11-27 10:44:00,
2013-11-27 05:47:00,73.0,71.8,29.83,SSW,202,4.0,7.0,96,0.15,,FEW,1.76,0.00,VWS V14.01,2013-11-27 10:47:00,
2013-11-27 05:49:00,72.9,71.7,29.83,South,169,2.0,7.0,96,0.15,,FEW,1.76,0.00,VWS V14.01,2013-11-27 10:49:00,
2013-11-27 05:52:00,72.9,71.7,29.83,SW,229,5.0,7.0,96,0.13,,FEW,1.76,0.00,VWS V14.01,2013-11-27 10:52:00,
2013-11-27 05:54:00,72.8,71.6,29.83,SW,223,4.0,7.0,96,0.13,,FEW,1.76,0.00,VWS V14.01,2013-11-27 10:54:00,
2013-11-27 05:57:00,72.7,71.5,29.83,SSW,200,4.0,7.0,96,0.13,,FEW,1.76,0.00,VWS V14.01,2013-11-27 10:57:00,
2013-11-27 05:58:00,72.7,71.5,29.83,SW,219,1.0,7.0,96,0.13,,FEW,1.76,0.00,VWS V14.01,2013-11-27 10:58:00,
2013-11-27 05:59:00,72.7,71.5,29.83,WSW,246,3.0,7.0,96,0.13,,FEW,1.76,0.00,VWS V14.01,2013-11-27 10:59:00,
2013-11-27 06:02:00,72.6,71.4,29.84,SW,228,2.0,3.0,96,0.12,,FEW,1.77,0.00,VWS V14.01,2013-11-27 11:02:00,
2013-11-27 06:03:00,72.6,71.4,29.84,SW,223,2.0,3.0,96,0.12,,FEW,1.77,0.00,VWS V14.01,2013-11-27 11:03:00,
2013-11-27 06:04:00,72.5,71.3,29.84,SSW,197,4.0,5.0,96,0.12,,FEW,1.77,0.00,VWS V14.01,2013-11-27 11:04:00,
2013-11-27 06:07:00,72.5,71.3,29.84,SSW,200,0.0,5.0,96,0.12,,FEW,1.77,0.00,VWS V14.01,2013-11-27 11:07:00,
2013-11-27 06:08:00,72.6,71.4,29.84,SW,227,1.0,5.0,96,0.12,,FEW,1.77,0.00,VWS V14.01,2013-11-27 11:08:00,
2013-11-27 06:09:00,72.5,71.3,29.84,SW,228,3.0,5.0,96,0.12,,FEW,1.77,0.00,VWS V14.01,2013-11-27 11:09:00,
2013-11-27 06:10:00,72.5,71.3,29.84,SW,227,3.0,5.0,96,0.13,,FEW,1.78,0.00,VWS V14.01,2013-11-27 11:10:00,
2013-11-27 06:12:00,72.5,71.3,29.84,SW,222,2.0,3.0,96,0.11,,FEW,1.78,0.00,VWS V14.01,2013-11-27 11:12:00,
2013-11-27 06:13:00,72.5,71.3,29.84,SW,220,2.0,4.0,96,0.11,,FEW,1.78,0.00,VWS V14.01,2013-11-27 11:13:00,
2013-11-27 06:14:00,72.4,71.2,29.84,SW,222,0.0,4.0,96,0.11,,FEW,1.78,0.00,VWS V14.01,2013-11-27 11:14:00,
2013-11-27 06:15:00,72.4,71.2,29.84,SW,222,0.0,4.0,96,0.11,,FEW,1.78,0.00,VWS V14.01,2013-11-27 11:15:00,
2013-11-27 06:17:00,72.4,71.2,29.84,SW,216,1.0,4.0,96,0.12,,FEW,1.79,0.00,VWS V14.01,2013-11-27 11:17:00,
2013-11-27 06:18:00,72.4,71.2,29.84,SW,216,0.0,4.0,96,0.12,,FEW,1.79,0.00,VWS V14.01,2013-11-27 11:18:00,
2013-11-27 06:19:00,72.4,71.2,29.84,SW,216,0.0,4.0,96,0.12,,FEW,1.79,0.00,VWS V14.01,2013-11-27 11:19:00,
2013-11-27 06:20:00,72.5,71.3,29.84,SW,216,2.0,4.0,96,0.12,,FEW,1.79,0.00,VWS V14.01,2013-11-27 11:20:00,
2013-11-27 06:22:00,72.4,71.2,29.84,SW,216,1.0,1.0,96,0.08,,FEW,1.79,0.00,VWS V14.01,2013-11-27 11:22:00,
2013-11-27 06:23:00,72.4,71.2,29.84,SW,221,1.0,2.0,96,0.09,,FEW,1.80,0.00,VWS V14.01,2013-11-27 11:23:00,
2013-11-27 06:25:00,72.4,71.2,29.84,SW,229,1.0,4.0,96,0.09,,FEW,1.80,0.00,VWS V14.01,2013-11-27 11:25:00,
2013-11-27 06:27:00,72.4,71.2,29.84,SW,232,1.0,4.0,96,0.09,,FEW,1.80,0.00,VWS V14.01,2013-11-27 11:27:00,
2013-11-27 06:28:00,72.4,71.2,29.84,SW,231,2.0,4.0,96,0.09,,FEW,1.80,0.00,VWS V14.01,2013-11-27 11:28:00,
2013-11-27 06:29:00,72.4,71.2,29.84,SW,227,2.0,4.0,96,0.10,,FEW,1.81,0.00,VWS V14.01,2013-11-27 11:29:00,
2013-11-27 06:30:00,72.4,71.2,29.84,SW,231,2.0,4.0,96,0.10,,FEW,1.81,0.00,VWS V14.01,2013-11-27 11:30:00,
2013-11-27 06:32:00,72.3,71.1,29.84,WSW,245,0.0,4.0,96,0.08,,FEW,1.81,0.00,VWS V14.01,2013-11-27 11:32:00,
2013-11-27 06:33:00,72.3,71.1,29.84,WSW,250,1.0,4.0,96,0.08,,FEW,1.81,0.00,VWS V14.01,2013-11-27 11:33:00,
2013-11-27 06:34:00,72.3,71.1,29.84,SW,229,2.0,4.0,96,0.08,,FEW,1.81,0.00,VWS V14.01,2013-11-27 11:34:00,
2013-11-27 06:35:00,72.3,71.1,29.84,WSW,257,1.0,4.0,96,0.08,,FEW,1.81,0.00,VWS V14.01,2013-11-27 11:35:00,
2013-11-27 06:37:00,72.3,71.1,29.84,SW,215,3.0,4.0,96,0.09,,FEW,1.82,0.00,VWS V14.01,2013-11-27 11:37:00,
2013-11-27 06:38:00,72.3,71.1,29.84,SW,232,3.0,4.0,96,0.09,,FEW,1.82,0.00,VWS V14.01,2013-11-27 11:38:00,
2013-11-27 06:39:00,72.3,71.1,29.84,WSW,254,4.0,4.0,96,0.09,,FEW,1.82,0.00,VWS V14.01,2013-11-27 11:39:00,
2013-11-27 06:40:00,72.3,71.1,29.84,SW,230,3.0,4.0,96,0.09,,FEW,1.82,0.00,VWS V14.01,2013-11-27 11:40:00,
2013-11-27 06:43:00,72.3,71.1,29.84,WSW,252,2.0,4.0,96,0.07,,FEW,1.82,0.00,VWS V14.01,2013-11-27 11:43:00,
2013-11-27 06:44:00,72.2,71.0,29.84,WSW,250,0.0,4.0,96,0.07,,FEW,1.82,0.00,VWS V14.01,2013-11-27 11:44:00,
2013-11-27 06:45:00,72.3,71.1,29.85,WSW,250,2.0,4.0,96,0.08,,FEW,1.83,0.00,VWS V14.01,2013-11-27 11:45:00,
2013-11-27 06:48:00,72.2,71.0,29.85,WSW,254,0.0,4.0,96,0.08,,FEW,1.83,0.00,VWS V14.01,2013-11-27 11:48:00,
2013-11-27 06:49:00,72.2,71.0,29.85,WSW,254,0.0,4.0,96,0.08,,FEW,1.83,0.00,VWS V14.01,2013-11-27 11:49:00,
2013-11-27 06:50:00,72.2,71.0,29.85,WSW,254,0.0,4.0,96,0.08,,FEW,1.83,0.00,VWS V14.01,2013-11-27 11:50:00,
2013-11-27 06:51:00,72.2,71.0,29.85,WSW,254,2.0,4.0,96,0.08,,FEW,1.83,0.00,VWS V14.01,2013-11-27 11:51:00,
2013-11-27 06:53:00,72.2,71.0,29.85,WSW,254,2.0,4.0,96,0.08,,FEW,1.84,0.00,VWS V14.01,2013-11-27 11:53:00,
2013-11-27 06:54:00,72.2,71.0,29.85,WSW,254,1.0,4.0,96,0.08,,FEW,1.84,0.00,VWS V14.01,2013-11-27 11:54:00,
2013-11-27 06:55:00,72.2,71.0,29.85,WSW,249,1.0,4.0,96,0.08,,FEW,1.84,0.00,VWS V14.01,2013-11-27 11:55:00,
2013-11-27 06:56:00,72.2,71.0,29.85,WSW,249,1.0,4.0,96,0.08,,FEW,1.84,0.00,VWS V14.01,2013-11-27 11:56:00,
2013-11-27 06:58:00,72.2,71.0,29.85,WSW,248,1.0,4.0,96,0.09,,FEW,1.85,0.00,VWS V14.01,2013-11-27 11:58:00,
2013-11-27 06:59:00,72.2,71.0,29.85,WSW,238,1.0,4.0,96,0.09,,FEW,1.85,0.00,VWS V14.01,2013-11-27 11:59:00,
2013-11-27 07:00:00,72.2,71.0,29.87,SW,221,2.0,4.0,96,0.09,,FEW,1.85,0.00,VWS V14.01,2013-11-27 12:00:00,
2013-11-27 07:01:00,72.2,71.0,29.87,SW,219,1.0,2.0,96,0.08,,FEW,1.85,0.00,VWS V14.01,2013-11-27 12:01:00,
2013-11-27 07:03:00,72.2,71.0,29.87,SW,221,5.0,5.0,96,0.09,,FEW,1.86,0.00,VWS V14.01,2013-11-27 12:03:00,
2013-11-27 07:04:00,72.2,71.0,29.87,SSW,209,4.0,5.0,96,0.09,,FEW,1.86,0.00,VWS V14.01,2013-11-27 12:04:00,
2013-11-27 07:05:00,72.3,71.1,29.87,SSW,195,4.0,5.0,96,0.09,,FEW,1.86,0.00,VWS V14.01,2013-11-27 12:05:00,
2013-11-27 07:06:00,72.3,71.1,29.87,SSW,200,4.0,5.0,96,0.10,,FEW,1.87,0.00,VWS V14.01,2013-11-27 12:06:00,
2013-11-27 07:07:00,72.4,71.2,29.87,South,188,3.0,5.0,96,0.10,,FEW,1.87,0.00,VWS V14.01,2013-11-27 12:07:00,
2013-11-27 07:08:00,72.4,71.2,29.87,SSW,208,3.0,5.0,96,0.10,,FEW,1.87,0.00,VWS V14.01,2013-11-27 12:08:00,
2013-11-27 07:09:00,72.5,71.3,29.87,SSW,192,5.0,5.0,96,0.10,,FEW,1.87,0.00,VWS V14.01,2013-11-27 12:09:00,
2013-11-27 07:10:00,72.5,71.3,29.87,SSW,194,5.0,5.0,96,0.10,,FEW,1.87,0.00,VWS V14.01,2013-11-27 12:10:00,
2013-11-27 07:11:00,72.6,71.4,29.87,SSW,205,1.0,4.0,96,0.10,,FEW,1.88,0.00,VWS V14.01,2013-11-27 12:11:00,
2013-11-27 07:12:00,72.6,71.4,29.87,SW,223,2.0,4.0,96,0.10,,FEW,1.88,0.00,VWS V14.01,2013-11-27 12:12:00,
2013-11-27 07:13:00,72.7,71.5,29.87,SW,223,4.0,4.0,96,0.10,,FEW,1.88,0.00,VWS V14.01,2013-11-27 12:13:00,
2013-11-27 07:14:00,72.7,71.5,29.87,SW,214,4.0,5.0,96,0.10,,FEW,1.88,0.00,VWS V14.01,2013-11-27 12:14:00,
2013-11-27 07:15:00,72.7,71.5,29.88,SW,224,3.0,5.0,96,0.10,,FEW,1.88,0.00,VWS V14.01,2013-11-27 12:15:00,
2013-11-27 07:16:00,72.7,71.5,29.88,WSW,242,5.0,5.0,96,0.11,,FEW,1.89,0.00,VWS V14.01,2013-11-27 12:16:00,
2013-11-27 07:17:00,72.7,71.5,29.88,WSW,254,4.0,5.0,96,0.11,,FEW,1.89,0.00,VWS V14.01,2013-11-27 12:17:00,
2013-11-27 07:18:00,72.8,71.6,29.88,West,267,2.0,5.0,96,0.11,,FEW,1.89,0.00,VWS V14.01,2013-11-27 12:18:00,
2013-11-27 07:19:00,72.8,71.6,29.88,SW,229,3.0,5.0,96,0.11,,FEW,1.89,0.00,VWS V14.01,2013-11-27 12:19:00,
2013-11-27 07:20:00,72.8,71.6,29.88,West,272,1.0,5.0,96,0.11,,FEW,1.89,0.00,VWS V14.01,2013-11-27 12:20:00,
2013-11-27 07:21:00,72.8,71.6,29.88,West,272,2.0,5.0,96,0.11,,FEW,1.89,0.00,VWS V14.01,2013-11-27 12:21:00,
2013-11-27 07:22:00,72.8,71.6,29.88,West,273,3.0,4.0,96,0.10,,FEW,1.89,0.00,VWS V14.01,2013-11-27 12:22:00,
2013-11-27 07:23:00,72.9,71.7,29.88,West,263,2.0,4.0,96,0.10,,FEW,1.89,0.00,VWS V14.01,2013-11-27 12:23:00,
2013-11-27 07:24:00,72.9,71.7,29.88,West,273,1.0,4.0,96,0.11,,FEW,1.90,0.00,VWS V14.01,2013-11-27 12:24:00,
2013-11-27 07:26:00,72.9,71.7,29.88,West,260,0.0,4.0,96,0.11,,FEW,1.90,0.00,VWS V14.01,2013-11-27 12:26:00,
2013-11-27 07:27:00,72.9,71.7,29.88,West,267,1.0,4.0,96,0.11,,FEW,1.90,0.00,VWS V14.01,2013-11-27 12:27:00,
2013-11-27 07:28:00,72.8,71.6,29.88,West,277,0.0,4.0,96,0.11,,FEW,1.90,0.00,VWS V14.01,2013-11-27 12:28:00,
2013-11-27 07:29:00,72.8,71.6,29.88,West,277,1.0,4.0,96,0.11,,FEW,1.90,0.00,VWS V14.01,2013-11-27 12:29:00,
2013-11-27 07:31:00,72.8,71.6,29.88,West,277,1.0,1.0,96,0.10,,FEW,1.91,0.00,VWS V14.01,2013-11-27 12:31:00,
2013-11-27 07:32:00,72.8,71.6,29.88,West,277,1.0,1.0,96,0.10,,FEW,1.91,0.00,VWS V14.01,2013-11-27 12:32:00,
2013-11-27 07:33:00,72.8,71.6,29.88,West,277,1.0,1.0,96,0.10,,FEW,1.91,0.00,VWS V14.01,2013-11-27 12:33:00,
2013-11-27 07:35:00,72.8,71.6,29.88,West,277,0.0,1.0,96,0.10,,FEW,1.91,0.00,VWS V14.01,2013-11-27 12:35:00,
2013-11-27 07:36:00,72.8,71.6,29.88,West,277,0.0,1.0,96,0.10,,FEW,1.91,0.00,VWS V14.01,2013-11-27 12:36:00,
2013-11-27 07:37:00,72.8,71.6,29.88,West,277,0.0,1.0,96,0.10,,FEW,1.91,0.00,VWS V14.01,2013-11-27 12:37:00,
2013-11-27 07:38:00,72.8,71.6,29.88,West,277,1.0,1.0,96,0.11,,FEW,1.92,0.00,VWS V14.01,2013-11-27 12:38:00,
2013-11-27 07:40:00,72.8,71.6,29.88,West,277,2.0,2.0,96,0.11,,FEW,1.92,0.00,VWS V14.01,2013-11-27 12:40:00,
2013-11-27 07:41:00,72.8,71.6,29.88,West,277,1.0,1.0,96,0.10,,FEW,1.92,0.00,VWS V14.01,2013-11-27 12:41:00,
2013-11-27 07:42:00,72.8,71.6,29.88,West,277,2.0,2.0,96,0.10,,FEW,1.92,0.00,VWS V14.01,2013-11-27 12:42:00,
2013-11-27 07:43:00,72.8,71.6,29.88,West,277,0.0,2.0,96,0.11,,FEW,1.93,5.00,VWS V14.01,2013-11-27 12:43:00,
2013-11-27 07:45:00,72.8,71.6,29.88,West,277,0.0,2.0,96,0.11,,FEW,1.93,7.00,VWS V14.01,2013-11-27 12:45:00,
2013-11-27 07:46:00,72.8,71.6,29.87,West,277,0.0,2.0,96,0.11,,FEW,1.93,9.00,VWS V14.01,2013-11-27 12:46:00,
2013-11-27 07:47:00,72.8,71.6,29.87,West,277,1.0,2.0,96,0.11,,FEW,1.93,9.00,VWS V14.01,2013-11-27 12:47:00,
2013-11-27 07:48:00,72.8,71.6,29.87,West,277,0.0,2.0,96,0.11,,FEW,1.93,11.00,VWS V14.01,2013-11-27 12:48:00,
2013-11-27 07:49:00,72.8,71.6,29.87,West,277,0.0,2.0,96,0.11,,FEW,1.93,11.00,VWS V14.01,2013-11-27 12:49:00,
2013-11-27 07:50:00,72.8,71.6,29.87,West,277,0.0,2.0,96,0.11,,FEW,1.93,14.00,VWS V14.01,2013-11-27 12:50:00,
2013-11-27 07:51:00,72.8,71.6,29.87,West,277,0.0,0.0,96,0.10,,FEW,1.93,14.00,VWS V14.01,2013-11-27 12:51:00,
2013-11-27 07:52:00,72.8,71.6,29.87,West,277,0.0,0.0,96,0.10,,FEW,1.93,14.00,VWS V14.01,2013-11-27 12:52:00,
2013-11-27 07:53:00,72.8,71.6,29.87,West,277,0.0,2.0,96,0.10,,FEW,1.93,18.00,VWS V14.01,2013-11-27 12:53:00,
2013-11-27 07:54:00,72.9,71.7,29.87,West,277,0.0,2.0,96,0.10,,FEW,1.93,19.00,VWS V14.01,2013-11-27 12:54:00,
2013-11-27 07:56:00,72.9,71.7,29.87,West,277,0.0,2.0,96,0.10,,FEW,1.93,21.00,VWS V14.01,2013-11-27 12:56:00,
2013-11-27 07:57:00,72.9,71.7,29.87,West,277,0.0,2.0,96,0.10,,FEW,1.93,21.00,VWS V14.01,2013-11-27 12:57:00,
2013-11-27 07:58:00,72.9,71.7,29.87,West,260,1.0,2.0,96,0.10,,FEW,1.93,21.00,VWS V14.01,2013-11-27 12:58:00,
2013-11-27 07:59:00,72.9,71.7,29.87,West,260,1.0,2.0,96,0.10,,FEW,1.93,19.00,VWS V14.01,2013-11-27 12:59:00,
2013-11-27 08:01:00,72.9,71.7,29.88,WSW,257,1.0,1.0,96,0.08,,FEW,1.93,19.00,VWS V14.01,2013-11-27 13:01:00,
2013-11-27 08:02:00,72.9,71.7,29.88,WSW,257,0.0,2.0,96,0.08,,FEW,1.93,21.00,VWS V14.01,2013-11-27 13:02:00,
2013-11-27 08:03:00,73.0,71.8,29.88,WSW,257,2.0,2.0,96,0.08,,FEW,1.93,25.00,VWS V14.01,2013-11-27 13:03:00,
2013-11-27 08:04:00,72.9,71.7,29.88,WSW,257,1.0,2.0,96,0.08,,FEW,1.93,25.00,VWS V14.01,2013-11-27 13:04:00,
2013-11-27 08:06:00,73.0,71.8,29.88,WSW,257,0.0,2.0,96,0.08,,FEW,1.93,30.00,VWS V14.01,2013-11-27 13:06:00,
2013-11-27 08:07:00,73.0,71.8,29.88,WSW,257,0.0,2.0,96,0.08,,FEW,1.93,32.00,VWS V14.01,2013-11-27 13:07:00,
2013-11-27 08:09:00,73.0,71.8,29.88,WSW,257,0.0,2.0,96,0.08,,FEW,1.93,37.00,VWS V14.01,2013-11-27 13:09:00,
2013-11-27 08:11:00,73.0,71.8,29.88,WSW,257,0.0,0.0,96,0.05,,FEW,1.93,42.00,VWS V14.01,2013-11-27 13:11:00,
2013-11-27 08:12:00,73.0,71.8,29.88,WSW,257,0.0,0.0,96,0.05,,FEW,1.93,42.00,VWS V14.01,2013-11-27 13:12:00,
2013-11-27 08:14:00,73.0,71.8,29.88,WSW,257,0.0,0.0,96,0.05,,FEW,1.93,33.00,VWS V14.01,2013-11-27 13:14:00,
2013-11-27 08:16:00,73.1,72.2,29.89,WSW,257,0.0,2.0,97,0.05,,FEW,1.93,40.00,VWS V14.01,2013-11-27 13:16:00,
2013-11-27 08:17:00,73.1,72.2,29.89,WSW,257,2.0,2.0,97,0.05,,FEW,1.93,44.00,VWS V14.01,2013-11-27 13:17:00,
2013-11-27 08:18:00,73.1,72.2,29.89,WSW,257,0.0,2.0,97,0.05,,FEW,1.93,47.00,VWS V14.01,2013-11-27 13:18:00,
2013-11-27 08:19:00,73.1,71.9,29.89,WSW,257,0.0,2.0,96,0.05,,FEW,1.93,47.00,VWS V14.01,2013-11-27 13:19:00,
2013-11-27 08:21:00,73.1,72.2,29.89,WSW,257,1.0,2.0,97,0.04,,FEW,1.93,47.00,VWS V14.01,2013-11-27 13:21:00,
2013-11-27 08:22:00,73.1,72.2,29.89,WSW,257,0.0,2.0,97,0.04,,FEW,1.93,51.00,VWS V14.01,2013-11-27 13:22:00,
2013-11-27 08:23:00,73.1,72.2,29.89,WSW,257,0.0,2.0,97,0.04,,FEW,1.93,51.00,VWS V14.01,2013-11-27 13:23:00,
2013-11-27 08:24:00,73.1,72.2,29.89,WSW,257,0.0,2.0,97,0.04,,FEW,1.93,51.00,VWS V14.01,2013-11-27 13:24:00,
2013-11-27 08:26:00,73.2,72.3,29.89,WSW,257,0.0,2.0,97,0.04,,FEW,1.93,62.00,VWS V14.01,2013-11-27 13:26:00,
2013-11-27 08:28:00,73.2,72.3,29.89,WSW,257,1.0,2.0,97,0.04,,FEW,1.93,63.00,VWS V14.01,2013-11-27 13:28:00,
2013-11-27 08:29:00,73.2,72.3,29.89,WSW,257,0.0,3.0,97,0.04,,FEW,1.93,33.00,VWS V14.01,2013-11-27 13:29:00,
2013-11-27 08:30:00,73.2,72.3,29.89,WSW,257,0.0,3.0,97,0.04,,FEW,1.93,33.00,VWS V14.01,2013-11-27 13:30:00,
2013-11-27 08:31:00,73.3,72.4,29.90,West,278,3.0,3.0,97,0.02,,FEW,1.93,23.00,VWS V14.01,2013-11-27 13:31:00,
2013-11-27 08:33:00,73.3,72.4,29.90,NE,43,6.0,6.0,97,0.02,,FEW,1.93,47.00,VWS V14.01,2013-11-27 13:33:00,
2013-11-27 08:34:00,73.3,72.1,29.90,WNW,294,7.0,8.0,96,0.03,,FEW,1.94,53.00,VWS V14.01,2013-11-27 13:34:00,
2013-11-27 08:35:00,73.2,72.0,29.90,NW,311,1.0,8.0,96,0.03,,FEW,1.94,53.00,VWS V14.01,2013-11-27 13:35:00,
2013-11-27 08:36:00,73.0,71.8,29.90,NW,309,9.0,10.0,96,0.03,,FEW,1.94,53.00,VWS V14.01,2013-11-27 13:36:00,
2013-11-27 08:38:00,72.6,71.1,29.90,WNW,298,6.0,10.0,95,0.03,,FEW,1.94,47.00,VWS V14.01,2013-11-27 13:38:00,
2013-11-27 08:40:00,72.4,71.2,29.90,West,281,4.0,10.0,96,0.03,,FEW,1.94,46.00,VWS V14.01,2013-11-27 13:40:00,
2013-11-27 08:42:00,72.2,71.0,29.90,NW,316,2.0,8.0,96,0.02,,FEW,1.94,42.00,VWS V14.01,2013-11-27 13:42:00,
2013-11-27 08:43:00,72.1,70.9,29.90,WNW,287,6.0,8.0,96,0.02,,FEW,1.94,42.00,VWS V14.01,2013-11-27 13:43:00,
2013-11-27 08:44:00,72.0,70.8,29.90,WNW,298,4.0,8.0,96,0.02,,FEW,1.94,42.00,VWS V14.01,2013-11-27 13:44:00,
2013-11-27 08:45:00,72.0,70.8,29.90,NW,320,5.0,9.0,96,0.02,,FEW,1.94,42.00,VWS V14.01,2013-11-27 13:45:00,
2013-11-27 08:47:00,71.8,70.6,29.91,NW,308,4.0,9.0,96,0.02,,FEW,1.94,44.00,VWS V14.01,2013-11-27 13:47:00,
2013-11-27 08:49:00,71.8,70.6,29.91,WNW,286,4.0,9.0,96,0.02,,FEW,1.94,46.00,VWS V14.01,2013-11-27 13:49:00,
2013-11-27 08:50:00,71.7,70.2,29.91,NW,326,1.0,9.0,95,0.02,,FEW,1.94,49.00,VWS V14.01,2013-11-27 13:50:00,
2013-11-27 08:52:00,71.8,70.6,29.91,NW,304,7.0,7.0,96,0.01,,FEW,1.94,58.00,VWS V14.01,2013-11-27 13:52:00,
2013-11-27 08:54:00,71.8,70.6,29.91,NW,310,6.0,7.0,96,0.01,,FEW,1.94,63.00,VWS V14.01,2013-11-27 13:54:00,
2013-11-27 08:55:00,71.9,70.4,29.91,NW,323,1.0,10.0,95,0.01,,FEW,1.94,77.00,VWS V14.01,2013-11-27 13:55:00,
2013-11-27 08:57:00,72.0,70.5,29.91,West,273,6.0,12.0,95,0.01,,FEW,1.94,88.00,VWS V14.01,2013-11-27 13:57:00,
2013-11-27 08:59:00,72.1,70.6,29.91,WNW,302,6.0,12.0,95,0.01,,FEW,1.94,93.00,VWS V14.01,2013-11-27 13:59:00,
2013-11-27 09:00:00,72.1,70.6,29.91,NNW,346,5.0,12.0,95,0.01,,FEW,1.94,93.00,VWS V14.01,2013-11-27 14:00:00,
2013-11-27 09:02:00,72.2,70.4,29.91,NW,321,5.0,8.0,94,0.01,,FEW,1.94,104.00,VWS V14.01,2013-11-27 14:02:00,
2013-11-27 09:04:00,72.3,70.5,29.91,NNW,336,4.0,9.0,94,0.01,,FEW,1.94,111.00,VWS V14.01,2013-11-27 14:04:00,
2013-11-27 09:05:00,72.3,70.5,29.91,NW,318,6.0,9.0,94,0.01,,FEW,1.94,118.00,VWS V14.01,2013-11-27 14:05:00,
2013-11-27 09:06:00,72.4,70.6,29.91,NW,315,4.0,9.0,94,0.01,,FEW,1.94,132.00,VWS V14.01,2013-11-27 14:06:00,
2013-11-27 09:07:00,72.5,70.7,29.91,NW,318,3.0,9.0,94,0.01,,FEW,1.94,144.00,VWS V14.01,2013-11-27 14:07:00,
2013-11-27 09:09:00,72.7,70.9,29.91,WNW,290,5.0,11.0,94,0.01,,FEW,1.94,162.00,VWS V14.01,2013-11-27 14:09:00,
2013-11-27 09:10:00,72.8,70.7,29.91,SW,232,5.0,11.0,93,0.01,,FEW,1.94,167.00,VWS V14.01,2013-11-27 14:10:00,
2013-11-27 09:11:00,72.8,70.7,29.91,West,279,5.0,11.0,93,0.01,,FEW,1.94,169.00,VWS V14.01,2013-11-27 14:11:00,
2013-11-27 09:12:00,72.9,70.8,29.91,WNW,291,3.0,9.0,93,0.01,,FEW,1.94,160.00,VWS V14.01,2013-11-27 14:12:00,
2013-11-27 09:14:00,73.0,70.5,29.91,NW,317,9.0,11.0,92,0.01,,FEW,1.94,142.00,VWS V14.01,2013-11-27 14:14:00,
2013-11-27 09:15:00,73.1,70.6,29.92,WNW,299,6.0,11.0,92,0.01,,FEW,1.94,141.00,VWS V14.01,2013-11-27 14:15:00,
2013-11-27 09:16:00,73.1,70.6,29.92,NW,310,9.0,11.0,92,0.01,,FEW,1.94,141.00,VWS V14.01,2013-11-27 14:16:00,
2013-11-27 09:17:00,73.3,70.5,29.92,West,281,11.0,11.0,91,0.01,,FEW,1.94,139.00,VWS V14.01,2013-11-27 14:17:00,
2013-11-27 09:19:00,73.5,70.7,29.92,NNW,336,5.0,11.0,91,0.01,,FEW,1.94,142.00,VWS V14.01,2013-11-27 14:19:00,
2013-11-27 09:20:00,73.6,70.8,29.92,WNW,302,10.0,11.0,91,0.01,,FEW,1.94,144.00,VWS V14.01,2013-11-27 14:20:00,
2013-11-27 09:21:00,73.6,70.8,29.92,WNW,299,10.0,11.0,91,0.01,,FEW,1.94,144.00,VWS V14.01,2013-11-27 14:21:00,
2013-11-27 09:22:00,73.9,70.8,29.92,WNW,287,8.0,13.0,90,0.01,,FEW,1.94,146.00,VWS V14.01,2013-11-27 14:22:00,
2013-11-27 09:25:00,74.1,70.7,29.92,WNW,299,1.0,13.0,89,0.01,,FEW,1.94,148.00,VWS V14.01,2013-11-27 14:25:00,
2013-11-27 09:26:00,74.2,70.8,29.92,NW,318,3.0,13.0,89,0.01,,FEW,1.94,149.00,VWS V14.01,2013-11-27 14:26:00,
2013-11-27 09:27:00,74.3,70.5,29.92,NW,304,6.0,13.0,88,0.01,,FEW,1.94,141.00,VWS V14.01,2013-11-27 14:27:00,
2013-11-27 09:30:00,74.5,70.7,29.93,NW,305,7.0,13.0,88,0.01,,FEW,1.94,134.00,VWS V14.01,2013-11-27 14:30:00,
2013-11-27 09:31:00,74.6,70.5,29.93,NNW,331,4.0,13.0,87,0.01,,FEW,1.94,127.00,VWS V14.01,2013-11-27 14:31:00,
2013-11-27 09:32:00,74.6,70.5,29.93,NW,314,6.0,10.0,87,0.01,,FEW,1.94,120.00,VWS V14.01,2013-11-27 14:32:00,
2013-11-27 09:33:00,74.7,70.6,29.93,West,277,5.0,10.0,87,0.01,,FEW,1.94,111.00,VWS V14.01,2013-11-27 14:33:00,
2013-11-27 09:35:00,74.8,70.3,29.93,WNW,285,6.0,11.0,86,0.01,,FEW,1.94,91.00,VWS V14.01,2013-11-27 14:35:00,
2013-11-27 09:36:00,74.8,70.0,29.93,WNW,290,5.0,11.0,85,0.01,,FEW,1.94,91.00,VWS V14.01,2013-11-27 14:36:00,
2013-11-27 09:37:00,74.9,70.1,29.93,NW,304,5.0,11.0,85,0.01,,FEW,1.94,86.00,VWS V14.01,2013-11-27 14:37:00,
2013-11-27 09:38:00,74.9,70.1,29.93,West,273,1.0,11.0,85,0.01,,FEW,1.94,86.00,VWS V14.01,2013-11-27 14:38:00,
2013-11-27 09:40:00,75.1,69.9,29.93,WNW,294,3.0,11.0,84,0.01,,FEW,1.94,107.00,VWS V14.01,2013-11-27 14:40:00,
2013-11-27 09:41:00,75.1,69.9,29.93,NW,323,2.0,5.0,84,0.00,,FEW,1.94,107.00,VWS V14.01,2013-11-27 14:41:00,
2013-11-27 09:42:00,75.1,69.9,29.93,WNW,299,5.0,6.0,84,0.00,,FEW,1.94,116.00,VWS V14.01,2013-11-27 14:42:00,
2013-11-27 09:43:00,75.2,70.0,29.93,WNW,298,7.0,9.0,84,0.00,,FEW,1.94,134.00,VWS V14.01,2013-11-27 14:43:00,
2013-11-27 09:45:00,75.2,69.7,29.93,NNW,334,3.0,9.0,83,0.00,,FEW,1.94,135.00,VWS V14.01,2013-11-27 14:45:00,
2013-11-27 09:46:00,75.3,69.8,29.93,NW,304,2.0,9.0,83,0.00,,FEW,1.94,135.00,VWS V14.01,2013-11-27 14:46:00,
2013-11-27 09:47:00,75.4,69.9,29.93,West,272,4.0,9.0,83,0.00,,FEW,1.94,137.00,VWS V14.01,2013-11-27 14:47:00,
2013-11-27 09:48:00,75.4,69.9,29.93,WNW,296,4.0,9.0,83,0.00,,FEW,1.94,139.00,VWS V14.01,2013-11-27 14:48:00,
2013-11-27 09:51:00,75.6,70.4,29.93,NNW,339,4.0,9.0,84,0.00,,FEW,1.94,146.00,VWS V14.01,2013-11-27 14:51:00,
2013-11-27 09:53:00,75.7,70.2,29.93,West,266,7.0,8.0,83,0.00,,FEW,1.94,137.00,VWS V14.01,2013-11-27 14:53:00,
2013-11-27 09:56:00,75.7,69.8,29.93,NW,304,6.0,11.0,82,0.00,,FEW,1.94,111.00,VWS V14.01,2013-11-27 14:56:00,
2013-11-27 09:58:00,75.6,69.4,29.93,NW,311,4.0,11.0,81,0.00,,FEW,1.94,98.00,VWS V14.01,2013-11-27 14:58:00,
2013-11-27 09:59:00,75.6,69.4,29.93,NW,317,5.0,11.0,81,0.00,,FEW,1.94,98.00,VWS V14.01,2013-11-27 14:59:00,
2013-11-27 10:01:00,75.6,69.0,29.93,WNW,302,4.0,9.0,80,0.00,,FEW,1.94,93.00,VWS V14.01,2013-11-27 15:01:00,
2013-11-27 10:03:00,75.7,69.1,29.93,North,5,6.0,13.0,80,0.00,,FEW,1.94,93.00,VWS V14.01,2013-11-27 15:03:00,
2013-11-27 10:04:00,75.7,68.7,29.93,West,279,5.0,13.0,79,0.00,,FEW,1.94,93.00,VWS V14.01,2013-11-27 15:04:00,
2013-11-27 10:06:00,75.7,68.7,29.93,NNW,333,5.0,13.0,79,0.00,,FEW,1.94,104.00,VWS V14.01,2013-11-27 15:06:00,
2013-11-27 10:07:00,75.7,68.4,29.93,WNW,296,2.0,13.0,78,0.00,,FEW,1.94,104.00,VWS V14.01,2013-11-27 15:07:00,
2013-11-27 10:08:00,75.8,68.5,29.93,NNW,336,12.0,13.0,78,0.00,,FEW,1.94,120.00,VWS V14.01,2013-11-27 15:08:00,
2013-11-27 10:09:00,75.8,68.5,29.93,NW,304,5.0,13.0,78,0.00,,FEW,1.94,120.00,VWS V14.01,2013-11-27 15:09:00,
2013-11-27 10:11:00,75.9,68.6,29.93,WNW,292,3.0,12.0,78,0.00,,FEW,1.94,139.00,VWS V14.01,2013-11-27 15:11:00,
2013-11-27 10:12:00,75.8,68.5,29.93,WNW,294,5.0,12.0,78,0.00,,FEW,1.94,139.00,VWS V14.01,2013-11-27 15:12:00,
2013-11-27 10:14:00,76.0,68.7,29.93,WNW,298,2.0,12.0,78,0.00,,FEW,1.94,153.00,VWS V14.01,2013-11-27 15:14:00,
2013-11-27 10:16:00,76.1,68.8,29.93,WNW,296,7.0,12.0,78,0.00,,FEW,1.94,151.00,VWS V14.01,2013-11-27 15:16:00,
2013-11-27 10:17:00,76.1,68.8,29.93,NNW,334,4.0,12.0,78,0.00,,FEW,1.94,148.00,VWS V14.01,2013-11-27 15:17:00,
2013-11-27 10:19:00,76.2,68.8,29.93,NW,304,10.0,12.0,78,0.00,,FEW,1.94,151.00,VWS V14.01,2013-11-27 15:19:00,
2013-11-27 10:21:00,76.2,68.8,29.93,WNW,286,3.0,6.0,78,0.00,,FEW,1.94,149.00,VWS V14.01,2013-11-27 15:21:00,
2013-11-27 10:22:00,76.2,68.8,29.93,WNW,282,7.0,7.0,78,0.00,,FEW,1.94,149.00,VWS V14.01,2013-11-27 15:22:00,
2013-11-27 10:24:00,76.2,68.5,29.93,NW,307,10.0,13.0,77,0.00,,FEW,1.94,148.00,VWS V14.01,2013-11-27 15:24:00,
2013-11-27 10:25:00,76.2,68.5,29.93,West,270,8.0,13.0,77,0.00,,FEW,1.94,149.00,VWS V14.01,2013-11-27 15:25:00,
2013-11-27 10:26:00,76.2,68.5,29.93,West,281,7.0,13.0,77,0.00,,FEW,1.94,163.00,VWS V14.01,2013-11-27 15:26:00,
2013-11-27 10:27:00,76.3,68.9,29.93,North,10,5.0,13.0,78,0.00,,FEW,1.94,163.00,VWS V14.01,2013-11-27 15:27:00,
2013-11-27 10:29:00,76.3,68.6,29.93,WNW,303,5.0,13.0,77,0.00,,FEW,1.94,169.00,VWS V14.01,2013-11-27 15:29:00,
2013-11-27 10:30:00,76.3,68.6,29.93,West,260,7.0,13.0,77,0.00,,FEW,1.94,167.00,VWS V14.01,2013-11-27 15:30:00,
2013-11-27 10:31:00,76.3,68.6,29.93,WNW,282,8.0,14.0,77,0.00,,FEW,1.94,167.00,VWS V14.01,2013-11-27 15:31:00,
2013-11-27 10:32:00,76.3,68.2,29.93,North,5,5.0,14.0,76,0.00,,FEW,1.94,169.00,VWS V14.01,2013-11-27 15:32:00,
2013-11-27 10:34:00,76.3,68.2,29.93,West,279,3.0,14.0,76,0.00,,FEW,1.94,181.00,VWS V14.01,2013-11-27 15:34:00,
2013-11-27 10:35:00,76.3,68.2,29.93,WNW,303,8.0,14.0,76,0.00,,FEW,1.94,193.00,VWS V14.01,2013-11-27 15:35:00,
2013-11-27 10:36:00,76.4,68.3,29.93,WNW,283,6.0,14.0,76,0.00,,FEW,1.94,204.00,VWS V14.01,2013-11-27 15:36:00,
2013-11-27 10:37:00,76.4,68.3,29.93,North,355,4.0,14.0,76,0.00,,FEW,1.94,211.00,VWS V14.01,2013-11-27 15:37:00,
2013-11-27 10:39:00,76.4,67.9,29.93,NW,319,5.0,14.0,75,0.00,,FEW,1.94,225.00,VWS V14.01,2013-11-27 15:39:00,
2013-11-27 10:40:00,76.4,67.9,29.93,NW,313,6.0,14.0,75,0.00,,FEW,1.94,234.00,VWS V14.01,2013-11-27 15:40:00,
2013-11-27 10:41:00,76.5,68.0,29.93,WNW,288,6.0,14.0,75,0.00,,FEW,1.94,243.00,VWS V14.01,2013-11-27 15:41:00,
2013-11-27 10:42:00,76.5,68.0,29.93,WNW,298,7.0,9.0,75,0.00,,FEW,1.94,257.00,VWS V14.01,2013-11-27 15:42:00,
2013-11-27 10:44:00,76.7,68.6,29.93,NNW,328,7.0,10.0,76,0.00,,FEW,1.94,255.00,VWS V14.01,2013-11-27 15:44:00,
2013-11-27 10:45:00,76.7,68.6,29.92,WNW,300,7.0,10.0,76,0.00,,FEW,1.94,255.00,VWS V14.01,2013-11-27 15:45:00,
2013-11-27 10:46:00,76.7,68.6,29.92,NW,304,6.0,10.0,76,0.00,,FEW,1.94,244.00,VWS V14.01,2013-11-27 15:46:00,
2013-11-27 10:47:00,76.8,68.7,29.92,NNW,342,5.0,11.0,76,0.00,,FEW,1.94,239.00,VWS V14.01,2013-11-27 15:47:00,
2013-11-27 10:49:00,76.8,68.7,29.92,NW,311,6.0,11.0,76,0.00,,FEW,1.94,236.00,VWS V14.01,2013-11-27 15:49:00,
2013-11-27 10:50:00,76.9,68.4,29.92,WNW,292,6.0,11.0,75,0.00,,FEW,1.94,313.00,VWS V14.01,2013-11-27 15:50:00,
2013-11-27 10:51:00,76.9,68.4,29.92,NW,309,9.0,11.0,75,0.00,,FEW,1.94,251.00,VWS V14.01,2013-11-27 15:51:00,
2013-11-27 10:52:00,76.9,68.4,29.92,WNW,289,6.0,11.0,75,0.00,,FEW,1.94,271.00,VWS V14.01,2013-11-27 15:52:00,
2013-11-27 10:55:00,77.1,69.0,29.92,West,275,1.0,11.0,76,0.00,,FEW,1.94,309.00,VWS V14.01,2013-11-27 15:55:00,
2013-11-27 10:56:00,77.2,69.1,29.92,NW,310,3.0,11.0,76,0.00,,FEW,1.94,309.00,VWS V14.01,2013-11-27 15:56:00,
2013-11-27 10:57:00,77.3,69.2,29.92,WSW,256,4.0,11.0,76,0.00,,FEW,1.94,302.00,VWS V14.01,2013-11-27 15:57:00,
2013-11-27 11:00:00,77.6,69.4,29.92,WNW,286,10.0,13.0,76,0.00,,FEW,1.94,715.00,VWS V14.01,2013-11-27 16:00:00,
2013-11-27 11:01:00,77.8,69.2,29.92,NW,325,2.0,8.0,75,0.00,,FEW,1.94,803.00,VWS V14.01,2013-11-27 16:01:00,
2013-11-27 11:02:00,78.0,69.4,29.92,NW,314,3.0,17.0,75,0.00,,FEW,1.94,830.00,VWS V14.01,2013-11-27 16:02:00,
2013-11-27 11:03:00,78.2,69.2,29.92,WNW,298,7.0,17.0,74,0.00,,FEW,1.94,846.00,VWS V14.01,2013-11-27 16:03:00,
2013-11-27 11:05:00,78.7,69.7,29.92,West,271,4.0,17.0,74,0.00,,FEW,1.94,872.00,VWS V14.01,2013-11-27 16:05:00,
2013-11-27 11:06:00,78.8,69.8,29.92,NW,313,11.0,17.0,74,0.00,,FEW,1.94,468.00,VWS V14.01,2013-11-27 16:06:00,
2013-11-27 11:07:00,78.9,69.5,29.92,NW,306,2.0,17.0,73,0.00,,FEW,1.94,497.00,VWS V14.01,2013-11-27 16:07:00,
2013-11-27 11:08:00,78.9,69.5,29.92,WNW,286,6.0,17.0,73,0.00,,FEW,1.94,410.00,VWS V14.01,2013-11-27 16:08:00,
2013-11-27 11:10:00,78.9,69.1,29.92,West,271,4.0,17.0,72,0.00,,FEW,1.94,410.00,VWS V14.01,2013-11-27 16:10:00,
2013-11-27 11:11:00,78.8,69.4,29.92,WNW,284,3.0,3.0,73,0.00,,FEW,1.94,410.00,VWS V14.01,2013-11-27 16:11:00,
2013-11-27 11:12:00,78.8,69.4,29.92,NW,319,8.0,8.0,73,0.00,,FEW,1.94,267.00,VWS V14.01,2013-11-27 16:12:00,
2013-11-27 11:13:00,78.9,69.9,29.92,NW,309,8.0,8.0,74,0.00,,FEW,1.94,267.00,VWS V14.01,2013-11-27 16:13:00,
2013-11-27 11:15:00,78.8,69.8,29.91,West,266,5.0,14.0,74,0.00,,FEW,1.94,244.00,VWS V14.01,2013-11-27 16:15:00,
2013-11-27 11:16:00,78.8,69.8,29.91,WNW,303,5.0,14.0,74,0.00,,FEW,1.94,322.00,VWS V14.01,2013-11-27 16:16:00,
2013-11-27 11:17:00,78.7,69.7,29.91,NW,320,5.0,14.0,74,0.00,,FEW,1.94,299.00,VWS V14.01,2013-11-27 16:17:00,
2013-11-27 11:18:00,78.7,69.7,29.91,WNW,286,1.0,14.0,74,0.00,,FEW,1.94,299.00,VWS V14.01,2013-11-27 16:18:00,
2013-11-27 11:20:00,78.7,69.7,29.91,NW,318,16.0,16.0,74,0.00,,FEW,1.94,715.00,VWS V14.01,2013-11-27 16:20:00,
2013-11-27 11:22:00,78.7,69.3,29.91,NW,309,6.0,13.0,73,0.00,,FEW,1.94,684.00,VWS V14.01,2013-11-27 16:22:00,
2013-11-27 11:23:00,78.8,69.4,29.91,NW,325,7.0,13.0,73,0.00,,FEW,1.94,682.00,VWS V14.01,2013-11-27 16:23:00,
2013-11-27 11:24:00,78.9,69.9,29.91,West,281,15.0,15.0,74,0.00,,FEW,1.94,687.00,VWS V14.01,2013-11-27 16:24:00,
2013-11-27 11:25:00,79.0,70.0,29.91,NW,311,10.0,15.0,74,0.00,,FEW,1.94,682.00,VWS V14.01,2013-11-27 16:25:00,
2013-11-27 11:27:00,79.0,70.4,29.91,WNW,290,10.0,15.0,75,0.00,,FEW,1.94,677.00,VWS V14.01,2013-11-27 16:27:00,
2013-11-27 11:28:00,79.0,70.4,29.91,NNW,329,8.0,15.0,75,0.00,,FEW,1.94,679.00,VWS V14.01,2013-11-27 16:28:00,
2013-11-27 11:29:00,79.0,70.0,29.91,NNW,346,5.0,15.0,74,0.00,,FEW,1.94,680.00,VWS V14.01,2013-11-27 16:29:00,
2013-11-27 11:30:00,79.0,70.0,29.91,WNW,287,7.0,15.0,74,0.00,,FEW,1.94,684.00,VWS V14.01,2013-11-27 16:30:00,
2013-11-27 11:32:00,79.0,70.0,29.91,WNW,294,15.0,17.0,74,0.00,,FEW,1.94,682.00,VWS V14.01,2013-11-27 16:32:00,
2013-11-27 11:33:00,79.0,70.0,29.91,NW,305,5.0,17.0,74,0.00,,FEW,1.94,679.00,VWS V14.01,2013-11-27 16:33:00,
2013-11-27 11:34:00,79.0,70.0,29.91,WSW,241,7.0,17.0,74,0.00,,FEW,1.94,677.00,VWS V14.01,2013-11-27 16:34:00,
2013-11-27 11:36:00,79.0,70.0,29.91,WNW,297,15.0,17.0,74,0.00,,FEW,1.94,675.00,VWS V14.01,2013-11-27 16:36:00,
2013-11-27 11:37:00,79.0,70.0,29.91,NNW,335,8.0,17.0,74,0.00,,FEW,1.94,679.00,VWS V14.01,2013-11-27 16:37:00,
2013-11-27 11:38:00,79.0,69.6,29.91,NNW,330,8.0,17.0,73,0.00,,FEW,1.94,680.00,VWS V14.01,2013-11-27 16:38:00,
2013-11-27 11:39:00,78.9,69.5,29.91,WNW,293,9.0,17.0,73,0.00,,FEW,1.94,680.00,VWS V14.01,2013-11-27 16:39:00,
2013-11-27 11:41:00,79.0,70.0,29.91,NW,319,8.0,17.0,74,0.00,,FEW,1.94,682.00,VWS V14.01,2013-11-27 16:41:00,
2013-11-27 11:42:00,79.0,69.6,29.91,WNW,299,9.0,14.0,73,0.00,,FEW,1.94,677.00,VWS V14.01,2013-11-27 16:42:00,
2013-11-27 11:43:00,79.0,69.2,29.91,WNW,303,7.0,14.0,72,0.00,,FEW,1.94,675.00,VWS V14.01,2013-11-27 16:43:00,
2013-11-27 11:44:00,78.9,69.1,29.91,WNW,288,7.0,14.0,72,0.00,,FEW,1.94,686.00,VWS V14.01,2013-11-27 16:44:00,
2013-11-27 11:45:00,78.9,69.1,29.91,NW,325,7.0,14.0,72,0.00,,FEW,1.94,717.00,VWS V14.01,2013-11-27 16:45:00,
2013-11-27 11:46:00,78.9,69.1,29.91,NW,306,11.0,14.0,72,0.00,,FEW,1.94,729.00,VWS V14.01,2013-11-27 16:46:00,
2013-11-27 11:47:00,78.9,69.1,29.91,WNW,288,7.0,14.0,72,0.00,,FEW,1.94,729.00,VWS V14.01,2013-11-27 16:47:00,
2013-11-27 11:48:00,78.9,69.1,29.91,West,273,11.0,14.0,72,0.00,,FEW,1.94,413.00,VWS V14.01,2013-11-27 16:48:00,
2013-11-27 11:49:00,78.8,69.0,29.91,West,269,7.0,14.0,72,0.00,,FEW,1.94,413.00,VWS V14.01,2013-11-27 16:49:00,
2013-11-27 11:50:00,78.8,69.0,29.91,WNW,290,13.0,14.0,72,0.00,,FEW,1.94,413.00,VWS V14.01,2013-11-27 16:50:00,
2013-11-27 11:51:00,78.7,68.9,29.91,WNW,302,5.0,16.0,72,0.00,,FEW,1.94,413.00,VWS V14.01,2013-11-27 16:51:00,
2013-11-27 11:52:00,78.8,69.0,29.91,SW,227,6.0,16.0,72,0.00,,FEW,1.94,693.00,VWS V14.01,2013-11-27 16:52:00,
2013-11-27 11:53:00,78.8,69.0,29.91,West,278,6.0,16.0,72,0.00,,FEW,1.94,693.00,VWS V14.01,2013-11-27 16:53:00,
2013-11-27 11:54:00,78.9,69.1,29.91,NNW,340,7.0,16.0,72,0.00,,FEW,1.94,694.00,VWS V14.01,2013-11-27 16:54:00,
2013-11-27 11:55:00,78.9,68.7,29.91,NW,317,4.0,20.0,71,0.00,,FEW,1.94,705.00,VWS V14.01,2013-11-27 16:55:00,
2013-11-27 11:56:00,79.0,68.8,29.91,West,273,7.0,20.0,71,0.00,,FEW,1.94,708.00,VWS V14.01,2013-11-27 16:56:00,
2013-11-27 11:58:00,79.1,68.9,29.91,NNW,329,7.0,20.0,71,0.00,,FEW,1.94,735.00,VWS V14.01,2013-11-27 16:58:00,
2013-11-27 11:59:00,79.1,68.5,29.91,WNW,298,5.0,20.0,70,0.00,,FEW,1.94,475.00,VWS V14.01,2013-11-27 16:59:00,
2013-11-27 12:00:00,79.1,68.5,29.91,NNW,334,7.0,20.0,70,0.00,,FEW,1.94,475.00,VWS V14.01,2013-11-27 17:00:00,
2013-11-27 12:02:00,79.0,68.8,29.91,NNW,347,6.0,9.0,71,0.00,,FEW,1.94,756.00,VWS V14.01,2013-11-27 17:02:00,
2013-11-27 12:03:00,79.1,68.9,29.91,WNW,300,8.0,17.0,71,0.00,,FEW,1.94,786.00,VWS V14.01,2013-11-27 17:03:00,
2013-11-27 12:04:00,79.1,68.5,29.91,NW,325,4.0,17.0,70,0.00,,FEW,1.94,745.00,VWS V14.01,2013-11-27 17:04:00,
2013-11-27 12:05:00,79.2,69.0,29.91,WSW,249,12.0,17.0,71,0.00,,FEW,1.94,745.00,VWS V14.01,2013-11-27 17:05:00,
2013-11-27 12:07:00,79.1,68.5,29.91,WNW,297,6.0,17.0,70,0.00,,FEW,1.94,279.00,VWS V14.01,2013-11-27 17:07:00,
2013-11-27 12:08:00,79.0,68.4,29.91,NW,314,4.0,17.0,70,0.00,,FEW,1.94,279.00,VWS V14.01,2013-11-27 17:08:00,
2013-11-27 12:09:00,78.9,68.7,29.91,NNW,329,4.0,17.0,71,0.00,,FEW,1.94,279.00,VWS V14.01,2013-11-27 17:09:00,
2013-11-27 12:11:00,78.8,68.2,29.91,NNW,346,8.0,17.0,70,0.00,,FEW,1.94,279.00,VWS V14.01,2013-11-27 17:11:00,
2013-11-27 12:12:00,78.8,68.2,29.91,NNW,328,7.0,15.0,70,0.00,,FEW,1.94,793.00,VWS V14.01,2013-11-27 17:12:00,
2013-11-27 12:13:00,78.9,68.7,29.91,WNW,296,5.0,15.0,71,0.00,,FEW,1.94,793.00,VWS V14.01,2013-11-27 17:13:00,
2013-11-27 12:14:00,78.9,68.3,29.91,WNW,292,4.0,15.0,70,0.00,,FEW,1.94,483.00,VWS V14.01,2013-11-27 17:14:00,
2013-11-27 12:16:00,78.9,67.9,29.91,NNW,342,6.0,16.0,69,0.00,,FEW,1.94,483.00,VWS V14.01,2013-11-27 17:16:00,
2013-11-27 12:17:00,78.8,67.8,29.91,NW,318,9.0,16.0,69,0.00,,FEW,1.94,758.00,VWS V14.01,2013-11-27 17:17:00,
2013-11-27 12:18:00,78.7,67.3,29.91,NW,320,5.0,16.0,68,0.00,,FEW,1.94,758.00,VWS V14.01,2013-11-27 17:18:00,
2013-11-27 12:19:00,78.6,67.2,29.91,West,279,9.0,17.0,68,0.00,,FEW,1.94,758.00,VWS V14.01,2013-11-27 17:19:00,
2013-11-27 12:20:00,78.5,67.1,29.91,WNW,302,8.0,17.0,68,0.00,,FEW,1.94,758.00,VWS V14.01,2013-11-27 17:20:00,
2013-11-27 12:21:00,78.5,67.9,29.91,NW,305,4.0,7.0,70,0.00,,FEW,1.94,835.00,VWS V14.01,2013-11-27 17:21:00,
2013-11-27 12:22:00,78.7,68.1,29.91,SW,223,9.0,9.0,70,0.00,,FEW,1.94,835.00,VWS V14.01,2013-11-27 17:22:00,
2013-11-27 12:23:00,78.7,68.1,29.91,West,271,15.0,15.0,70,0.00,,FEW,1.94,835.00,VWS V14.01,2013-11-27 17:23:00,
2013-11-27 12:24:00,78.7,67.7,29.91,NW,317,14.0,16.0,69,0.00,,FEW,1.94,835.00,VWS V14.01,2013-11-27 17:24:00,
2013-11-27 12:25:00,78.6,67.6,29.91,NNW,329,9.0,16.0,69,0.00,,FEW,1.94,835.00,VWS V14.01,2013-11-27 17:25:00,
2013-11-27 12:27:00,78.5,67.1,29.91,NNW,336,8.0,16.0,68,0.00,,FEW,1.94,468.00,VWS V14.01,2013-11-27 17:27:00,
2013-11-27 12:29:00,78.4,67.4,29.91,WNW,290,16.0,17.0,69,0.00,,FEW,1.94,399.00,VWS V14.01,2013-11-27 17:29:00,
2013-11-27 12:30:00,78.4,67.4,29.91,NNW,327,8.0,17.0,69,0.00,,FEW,1.94,399.00,VWS V14.01,2013-11-27 17:30:00,
2013-11-27 12:32:00,78.3,67.3,29.91,NW,305,11.0,11.0,69,0.00,,FEW,1.94,394.00,VWS V14.01,2013-11-27 17:32:00,
2013-11-27 12:34:00,78.4,68.2,29.91,NW,305,6.0,13.0,71,0.00,,FEW,1.94,394.00,VWS V14.01,2013-11-27 17:34:00,
2013-11-27 12:35:00,78.5,68.3,29.91,WNW,286,3.0,13.0,71,0.00,,FEW,1.94,394.00,VWS V14.01,2013-11-27 17:35:00,
2013-11-27 12:37:00,78.7,68.9,29.91,WNW,284,8.0,13.0,72,0.00,,FEW,1.94,492.00,VWS V14.01,2013-11-27 17:37:00,
2013-11-27 12:39:00,78.5,67.9,29.91,WNW,292,5.0,15.0,70,0.00,,FEW,1.94,469.00,VWS V14.01,2013-11-27 17:39:00,
2013-11-27 12:40:00,78.4,67.8,29.91,NW,325,11.0,18.0,70,0.00,,FEW,1.94,371.00,VWS V14.01,2013-11-27 17:40:00,
2013-11-27 12:41:00,78.4,67.8,29.91,WNW,300,11.0,18.0,70,0.00,,FEW,1.94,371.00,VWS V14.01,2013-11-27 17:41:00,
2013-11-27 12:42:00,78.2,67.2,29.91,West,273,8.0,21.0,69,0.00,,FEW,1.94,399.00,VWS V14.01,2013-11-27 17:42:00,
2013-11-27 12:43:00,78.1,67.1,29.91,WNW,288,18.0,21.0,69,0.00,,FEW,1.94,399.00,VWS V14.01,2013-11-27 17:43:00,
2013-11-27 12:44:00,78.0,66.6,29.91,NNW,341,13.0,21.0,68,0.00,,FEW,1.94,455.00,VWS V14.01,2013-11-27 17:44:00,
2013-11-27 12:46:00,77.9,66.9,29.90,NW,311,9.0,21.0,69,0.00,,FEW,1.94,443.00,VWS V14.01,2013-11-27 17:46:00,
2013-11-27 12:47:00,77.8,66.4,29.90,WNW,294,11.0,21.0,68,0.00,,FEW,1.94,448.00,VWS V14.01,2013-11-27 17:47:00,
2013-11-27 12:48:00,77.8,66.4,29.90,NNW,346,10.0,21.0,68,0.00,,FEW,1.94,274.00,VWS V14.01,2013-11-27 17:48:00,
2013-11-27 12:49:00,77.7,66.3,29.90,WSW,254,5.0,21.0,68,0.00,,FEW,1.94,246.00,VWS V14.01,2013-11-27 17:49:00,
2013-11-27 12:51:00,77.6,66.2,29.90,NW,305,13.0,14.0,68,0.00,,FEW,1.94,294.00,VWS V14.01,2013-11-27 17:51:00,
2013-11-27 12:52:00,77.5,66.1,29.90,NNW,334,7.0,14.0,68,0.00,,FEW,1.94,294.00,VWS V14.01,2013-11-27 17:52:00,
2013-11-27 12:53:00,77.5,66.1,29.90,NW,314,15.0,15.0,68,0.00,,FEW,1.94,294.00,VWS V14.01,2013-11-27 17:53:00,
2013-11-27 12:54:00,77.4,66.4,29.90,NW,307,4.0,15.0,69,0.00,,FEW,1.94,265.00,VWS V14.01,2013-11-27 17:54:00,
2013-11-27 12:55:00,77.4,66.4,29.90,WNW,287,5.0,15.0,69,0.00,,FEW,1.94,265.00,VWS V14.01,2013-11-27 17:55:00,
2013-11-27 12:56:00,77.5,66.9,29.90,NNW,332,10.0,15.0,70,0.00,,FEW,1.94,392.00,VWS V14.01,2013-11-27 17:56:00,
2013-11-27 12:57:00,77.6,68.3,29.90,NW,319,13.0,15.0,73,0.00,,FEW,1.94,461.00,VWS V14.01,2013-11-27 17:57:00,
2013-11-27 12:59:00,77.7,68.4,29.90,NW,325,7.0,15.0,73,0.00,,FEW,1.94,461.00,VWS V14.01,2013-11-27 17:59:00,
2013-11-27 13:00:00,77.7,68.4,29.90,NW,313,8.0,15.0,73,0.00,,FEW,1.94,461.00,VWS V14.01,2013-11-27 18:00:00,
2013-11-27 13:01:00,77.7,68.4,29.90,NW,313,11.0,22.0,73,0.00,,FEW,1.94,756.00,VWS V14.01,2013-11-27 18:01:00,
2013-11-27 13:02:00,77.7,68.4,29.90,NNW,333,11.0,22.0,73,0.00,,FEW,1.94,754.00,VWS V14.01,2013-11-27 18:02:00,
2013-11-27 13:03:00,77.7,68.8,29.90,NNW,342,11.0,22.0,74,0.00,,FEW,1.94,747.00,VWS V14.01,2013-11-27 18:03:00,
2013-11-27 13:04:00,77.9,68.9,29.90,NNW,341,11.0,22.0,74,0.00,,FEW,1.94,770.00,VWS V14.01,2013-11-27 18:04:00,
2013-11-27 13:05:00,77.9,68.9,29.90,West,277,11.0,22.0,74,0.00,,FEW,1.94,770.00,VWS V14.01,2013-11-27 18:05:00,
2013-11-27 13:06:00,77.8,68.9,29.90,North,360,5.0,22.0,74,0.00,,FEW,1.94,714.00,VWS V14.01,2013-11-27 18:06:00,
2013-11-27 13:07:00,77.8,68.9,29.90,NW,312,10.0,22.0,74,0.00,,FEW,1.94,714.00,VWS V14.01,2013-11-27 18:07:00,
2013-11-27 13:08:00,77.8,68.9,29.90,NNW,327,9.0,22.0,74,0.00,,FEW,1.94,712.00,VWS V14.01,2013-11-27 18:08:00,
2013-11-27 13:10:00,77.7,68.4,29.90,WSW,254,5.0,22.0,73,0.00,,FEW,1.94,710.00,VWS V14.01,2013-11-27 18:10:00,
2013-11-27 13:11:00,77.7,68.4,29.90,WSW,257,7.0,18.0,73,0.00,,FEW,1.94,610.00,VWS V14.01,2013-11-27 18:11:00,
2013-11-27 13:12:00,77.6,68.3,29.90,NW,325,7.0,18.0,73,0.00,,FEW,1.94,705.00,VWS V14.01,2013-11-27 18:12:00,
2013-11-27 13:13:00,77.7,68.4,29.90,North,350,8.0,18.0,73,0.00,,FEW,1.94,700.00,VWS V14.01,2013-11-27 18:13:00,
2013-11-27 13:15:00,77.6,67.9,29.90,NW,319,16.0,18.0,72,0.00,,FEW,1.94,664.00,VWS V14.01,2013-11-27 18:15:00,
2013-11-27 13:16:00,77.5,67.8,29.90,WNW,295,13.0,18.0,72,0.00,,FEW,1.94,689.00,VWS V14.01,2013-11-27 18:16:00,
2013-11-27 13:18:00,77.5,67.8,29.90,NW,319,8.0,18.0,72,0.00,,FEW,1.94,686.00,VWS V14.01,2013-11-27 18:18:00,
2013-11-27 13:20:00,77.4,67.7,29.90,NW,305,11.0,18.0,72,0.00,,FEW,1.94,694.00,VWS V14.01,2013-11-27 18:20:00,
2013-11-27 13:22:00,77.4,67.7,29.90,NW,315,15.0,15.0,72,0.00,,FEW,1.94,722.00,VWS V14.01,2013-11-27 18:22:00,
2013-11-27 13:23:00,77.3,67.6,29.90,NNE,17,13.0,19.0,72,0.00,,FEW,1.94,722.00,VWS V14.01,2013-11-27 18:23:00,
2013-11-27 13:25:00,77.3,67.6,29.90,NNW,343,16.0,19.0,72,0.00,,FEW,1.94,673.00,VWS V14.01,2013-11-27 18:25:00,
2013-11-27 13:28:00,77.2,67.1,29.90,NW,309,12.0,19.0,71,0.00,,FEW,1.94,448.00,VWS V14.01,2013-11-27 18:28:00,
2013-11-27 13:30:00,77.0,66.9,29.90,NW,323,8.0,19.0,71,0.00,,FEW,1.94,448.00,VWS V14.01,2013-11-27 18:30:00,
2013-11-27 13:33:00,76.7,67.0,29.90,NW,315,11.0,16.0,72,0.00,,FEW,1.94,613.00,VWS V14.01,2013-11-27 18:33:00,
2013-11-27 13:34:00,76.6,66.9,29.90,WNW,298,11.0,16.0,72,0.00,,FEW,1.94,613.00,VWS V14.01,2013-11-27 18:34:00,
2013-11-27 13:35:00,76.6,67.3,29.90,NW,323,6.0,16.0,73,0.00,,FEW,1.94,613.00,VWS V14.01,2013-11-27 18:35:00,
2013-11-27 13:38:00,76.9,67.6,29.90,WNW,298,5.0,17.0,73,0.00,,FEW,1.94,679.00,VWS V14.01,2013-11-27 18:38:00,
2013-11-27 13:39:00,76.9,67.6,29.90,NNW,327,9.0,17.0,73,0.00,,FEW,1.94,679.00,VWS V14.01,2013-11-27 18:39:00,
2013-11-27 13:40:00,77.0,67.7,29.90,North,355,8.0,17.0,73,0.00,,FEW,1.94,492.00,VWS V14.01,2013-11-27 18:40:00,
2013-11-27 13:43:00,77.0,66.9,29.90,WNW,291,12.0,14.0,71,0.00,,FEW,1.94,512.00,VWS V14.01,2013-11-27 18:43:00,
2013-11-27 13:44:00,77.0,66.9,29.90,West,268,6.0,14.0,71,0.00,,FEW,1.94,512.00,VWS V14.01,2013-11-27 18:44:00,
2013-11-27 13:45:00,77.0,66.9,29.90,WNW,286,6.0,14.0,71,0.00,,FEW,1.94,592.00,VWS V14.01,2013-11-27 18:45:00,
2013-11-27 13:46:00,77.0,66.9,29.90,NNW,334,6.0,14.0,71,0.00,,FEW,1.94,592.00,VWS V14.01,2013-11-27 18:46:00,
2013-11-27 13:49:00,77.0,66.9,29.90,WNW,302,14.0,14.0,71,0.00,,FEW,1.94,649.00,VWS V14.01,2013-11-27 18:49:00,
2013-11-27 13:50:00,77.1,66.6,29.90,NW,326,7.0,14.0,70,0.00,,FEW,1.94,626.00,VWS V14.01,2013-11-27 18:50:00,
2013-11-27 13:51:00,77.1,66.6,29.90,NW,306,6.0,13.0,70,0.00,,FEW,1.94,598.00,VWS V14.01,2013-11-27 18:51:00,
2013-11-27 13:54:00,77.2,66.7,29.90,NW,315,15.0,16.0,70,0.00,,FEW,1.94,617.00,VWS V14.01,2013-11-27 18:54:00,
2013-11-27 13:55:00,77.3,66.3,29.90,NNW,331,15.0,19.0,69,0.00,,FEW,1.94,617.00,VWS V14.01,2013-11-27 18:55:00,
2013-11-27 13:56:00,77.3,66.3,29.90,WNW,282,14.0,19.0,69,0.00,,FEW,1.94,617.00,VWS V14.01,2013-11-27 18:56:00,
2013-11-27 13:59:00,77.2,66.7,29.90,NW,315,12.0,19.0,70,0.00,,FEW,1.94,374.00,VWS V14.01,2013-11-27 18:59:00,
2013-11-27 14:00:00,77.2,66.7,29.90,North,10,9.0,19.0,70,0.00,,FEW,1.94,399.00,VWS V14.01,2013-11-27 19:00:00,
2013-11-27 14:01:00,77.1,66.2,29.90,NNW,338,4.0,10.0,69,0.00,,FEW,1.94,311.00,VWS V14.01,2013-11-27 19:01:00,
2013-11-27 14:04:00,76.7,65.8,29.90,NNW,346,5.0,16.0,69,0.00,,FEW,1.94,220.00,VWS V14.01,2013-11-27 19:04:00,
2013-11-27 14:05:00,76.7,65.8,29.90,NNW,336,3.0,16.0,69,0.00,,FEW,1.94,220.00,VWS V14.01,2013-11-27 19:05:00,
2013-11-27 14:06:00,76.6,65.7,29.90,North,360,5.0,16.0,69,0.00,,FEW,1.94,220.00,VWS V14.01,2013-11-27 19:06:00,
2013-11-27 14:09:00,76.5,66.0,29.90,NNW,335,3.0,16.0,70,0.00,,FEW,1.94,640.00,VWS V14.01,2013-11-27 19:09:00,
2013-11-27 14:10:00,76.6,66.1,29.90,WNW,301,5.0,16.0,70,0.00,,FEW,1.94,640.00,VWS V14.01,2013-11-27 19:10:00,
2013-11-27 14:11:00,76.7,65.8,29.90,North,5,8.0,14.0,69,0.00,,FEW,1.94,645.00,VWS V14.01,2013-11-27 19:11:00,
2013-11-27 14:12:00,76.8,65.4,29.90,NW,309,6.0,14.0,68,0.00,,FEW,1.94,640.00,VWS V14.01,2013-11-27 19:12:00,
2013-11-27 14:14:00,77.0,65.2,29.90,NW,304,9.0,14.0,67,0.00,,FEW,1.94,605.00,VWS V14.01,2013-11-27 19:14:00,
2013-11-27 14:15:00,77.1,65.7,29.90,NNW,337,11.0,14.0,68,0.00,,FEW,1.94,563.00,VWS V14.01,2013-11-27 19:15:00,
2013-11-27 14:16:00,77.2,65.8,29.90,NW,304,15.0,15.0,68,0.00,,FEW,1.94,563.00,VWS V14.01,2013-11-27 19:16:00,
2013-11-27 14:17:00,77.2,65.8,29.90,NW,304,15.0,15.0,68,0.00,,FEW,1.94,563.00,VWS V14.01,2013-11-27 19:17:00,
2013-11-27 14:20:00,77.1,65.3,29.90,NW,312,9.0,17.0,67,0.00,,FEW,1.94,570.00,VWS V14.01,2013-11-27 19:20:00,
2013-11-27 14:21:00,77.1,65.3,29.90,WNW,282,12.0,12.0,67,0.00,,FEW,1.94,566.00,VWS V14.01,2013-11-27 19:21:00,
2013-11-27 14:22:00,77.1,65.3,29.90,NW,309,9.0,13.0,67,0.00,,FEW,1.94,564.00,VWS V14.01,2013-11-27 19:22:00,
2013-11-27 14:23:00,77.1,65.3,29.90,NW,311,3.0,13.0,67,0.00,,FEW,1.94,559.00,VWS V14.01,2013-11-27 19:23:00,
2013-11-27 14:25:00,77.3,65.9,29.90,NW,309,13.0,15.0,68,0.00,,FEW,1.94,550.00,VWS V14.01,2013-11-27 19:25:00,
2013-11-27 14:26:00,77.3,65.5,29.90,WNW,295,11.0,15.0,67,0.00,,FEW,1.94,547.00,VWS V14.01,2013-11-27 19:26:00,
2013-11-27 14:27:00,77.2,65.4,29.90,North,355,4.0,15.0,67,0.00,,FEW,1.94,538.00,VWS V14.01,2013-11-27 19:27:00,
2013-11-27 14:28:00,77.2,65.4,29.90,WNW,302,12.0,15.0,67,0.00,,FEW,1.94,534.00,VWS V14.01,2013-11-27 19:28:00,
2013-11-27 14:30:00,77.2,65.4,29.90,WNW,282,8.0,15.0,67,0.00,,FEW,1.94,529.00,VWS V14.01,2013-11-27 19:30:00,
2013-11-27 14:31:00,77.2,65.4,29.90,North,349,14.0,14.0,67,0.00,,FEW,1.94,527.00,VWS V14.01,2013-11-27 19:31:00,
2013-11-27 14:32:00,77.2,65.4,29.90,North,360,6.0,14.0,67,0.00,,FEW,1.94,524.00,VWS V14.01,2013-11-27 19:32:00,
2013-11-27 14:33:00,77.2,65.4,29.90,NW,313,6.0,14.0,67,0.00,,FEW,1.94,520.00,VWS V14.01,2013-11-27 19:33:00,
2013-11-27 14:35:00,77.2,65.4,29.90,WNW,294,7.0,14.0,67,0.00,,FEW,1.94,515.00,VWS V14.01,2013-11-27 19:35:00,
2013-11-27 14:36:00,77.2,65.4,29.90,WNW,299,7.0,14.0,67,0.00,,FEW,1.94,512.00,VWS V14.01,2013-11-27 19:36:00,
2013-11-27 14:37:00,77.2,65.0,29.90,NW,307,9.0,14.0,66,0.00,,FEW,1.94,508.00,VWS V14.01,2013-11-27 19:37:00,
2013-11-27 14:38:00,77.1,64.9,29.90,NNW,344,6.0,16.0,66,0.00,,FEW,1.94,506.00,VWS V14.01,2013-11-27 19:38:00,
2013-11-27 14:40:00,77.2,65.0,29.90,NNW,328,11.0,16.0,66,0.00,,FEW,1.94,499.00,VWS V14.01,2013-11-27 19:40:00,
2013-11-27 14:41:00,77.2,64.5,29.90,NW,305,7.0,16.0,65,0.00,,FEW,1.94,499.00,VWS V14.01,2013-11-27 19:41:00,
2013-11-27 14:42:00,77.1,64.4,29.90,North,360,8.0,11.0,65,0.00,,FEW,1.94,501.00,VWS V14.01,2013-11-27 19:42:00,
2013-11-27 14:43:00,77.2,65.0,29.90,NW,309,10.0,16.0,66,0.00,,FEW,1.94,501.00,VWS V14.01,2013-11-27 19:43:00,
2013-11-27 14:45:00,77.2,64.5,29.91,WNW,291,11.0,16.0,65,0.00,,FEW,1.94,490.00,VWS V14.01,2013-11-27 19:45:00,
2013-11-27 14:46:00,77.2,64.5,29.91,NW,309,17.0,17.0,65,0.00,,FEW,1.94,489.00,VWS V14.01,2013-11-27 19:46:00,
2013-11-27 14:47:00,77.2,64.1,29.91,NNW,336,9.0,17.0,64,0.00,,FEW,1.94,485.00,VWS V14.01,2013-11-27 19:47:00,
2013-11-27 14:49:00,77.1,63.5,29.91,NW,306,10.0,19.0,63,0.00,,FEW,1.94,431.00,VWS V14.01,2013-11-27 19:49:00,
2013-11-27 14:51:00,77.1,64.0,29.91,WNW,298,11.0,19.0,64,0.00,,FEW,1.94,343.00,VWS V14.01,2013-11-27 19:51:00,
2013-11-27 14:52:00,77.1,64.0,29.91,WNW,299,5.0,9.0,64,0.00,,FEW,1.94,311.00,VWS V14.01,2013-11-27 19:52:00,
2013-11-27 14:53:00,77.0,63.9,29.91,WNW,298,12.0,12.0,64,0.00,,FEW,1.94,230.00,VWS V14.01,2013-11-27 19:53:00,
2013-11-27 14:54:00,77.0,63.9,29.91,NW,315,3.0,12.0,64,0.00,,FEW,1.94,274.00,VWS V14.01,2013-11-27 19:54:00,
2013-11-27 14:56:00,76.9,64.2,29.91,NW,323,10.0,12.0,65,0.00,,FEW,1.94,200.00,VWS V14.01,2013-11-27 19:56:00,
2013-11-27 14:57:00,76.9,64.7,29.91,WNW,300,7.0,12.0,66,0.00,,FEW,1.94,200.00,VWS V14.01,2013-11-27 19:57:00,
2013-11-27 14:58:00,76.8,64.2,29.91,WNW,294,5.0,12.0,65,0.00,,FEW,1.94,448.00,VWS V14.01,2013-11-27 19:58:00,
2013-11-27 14:59:00,76.8,64.2,29.91,North,355,5.0,12.0,65,0.00,,FEW,1.94,489.00,VWS V14.01,2013-11-27 19:59:00,
2013-11-27 15:01:00,77.0,64.8,29.91,North,5,5.0,9.0,66,0.00,,FEW,1.94,468.00,VWS V14.01,2013-11-27 20:01:00,
2013-11-27 15:02:00,77.0,64.3,29.91,NW,326,11.0,11.0,65,0.00,,FEW,1.94,468.00,VWS V14.01,2013-11-27 20:02:00,
2013-11-27 15:03:00,77.1,64.4,29.91,NNE,13,3.0,11.0,65,0.00,,FEW,1.94,454.00,VWS V14.01,2013-11-27 20:03:00,
2013-11-27 15:04:00,77.1,64.9,29.91,NW,317,6.0,11.0,66,0.00,,FEW,1.94,450.00,VWS V14.01,2013-11-27 20:04:00,
2013-11-27 15:05:00,77.1,64.4,29.91,North,351,7.0,11.0,65,0.00,,FEW,1.94,450.00,VWS V14.01,2013-11-27 20:05:00,
2013-11-27 15:06:00,77.1,64.4,29.91,WNW,302,8.0,11.0,65,0.00,,FEW,1.94,438.00,VWS V14.01,2013-11-27 20:06:00,
2013-11-27 15:07:00,77.1,64.4,29.91,NNW,331,7.0,11.0,65,0.00,,FEW,1.94,431.00,VWS V14.01,2013-11-27 20:07:00,
2013-11-27 15:08:00,77.1,64.0,29.91,WNW,294,7.0,11.0,64,0.00,,FEW,1.94,427.00,VWS V14.01,2013-11-27 20:08:00,
2013-11-27 15:10:00,77.0,64.3,29.91,NW,312,12.0,12.0,65,0.00,,FEW,1.94,422.00,VWS V14.01,2013-11-27 20:10:00,
2013-11-27 15:11:00,77.0,64.8,29.91,NNW,341,9.0,10.0,66,0.00,,FEW,1.94,418.00,VWS V14.01,2013-11-27 20:11:00,
2013-11-27 15:12:00,77.1,64.4,29.91,WNW,297,8.0,11.0,65,0.00,,FEW,1.94,415.00,VWS V14.01,2013-11-27 20:12:00,
2013-11-27 15:13:00,77.1,64.4,29.91,North,355,6.0,11.0,65,0.00,,FEW,1.94,415.00,VWS V14.01,2013-11-27 20:13:00,
2013-11-27 15:15:00,77.0,64.3,29.91,NW,307,9.0,13.0,65,0.00,,FEW,1.94,413.00,VWS V14.01,2013-11-27 20:15:00,
2013-11-27 15:16:00,76.9,64.2,29.91,NNW,346,3.0,13.0,65,0.00,,FEW,1.94,404.00,VWS V14.01,2013-11-27 20:16:00,
2013-11-27 15:17:00,76.9,64.2,29.91,NNE,15,3.0,13.0,65,0.00,,FEW,1.94,397.00,VWS V14.01,2013-11-27 20:17:00,
2013-11-27 15:18:00,76.8,64.2,29.91,NW,315,7.0,13.0,65,0.00,,FEW,1.94,397.00,VWS V14.01,2013-11-27 20:18:00,
2013-11-27 15:20:00,76.9,64.7,29.91,NNW,342,4.0,13.0,66,0.00,,FEW,1.94,394.00,VWS V14.01,2013-11-27 20:20:00,
2013-11-27 15:21:00,76.9,65.1,29.91,North,5,15.0,15.0,67,0.00,,FEW,1.94,394.00,VWS V14.01,2013-11-27 20:21:00,
2013-11-27 15:22:00,76.9,65.1,29.91,West,269,7.0,15.0,67,0.00,,FEW,1.94,394.00,VWS V14.01,2013-11-27 20:22:00,
2013-11-27 15:24:00,76.8,64.6,29.91,NNW,327,10.0,16.0,66,0.00,,FEW,1.94,394.00,VWS V14.01,2013-11-27 20:24:00,
2013-11-27 15:25:00,76.7,64.1,29.91,NNW,341,5.0,16.0,65,0.00,,FEW,1.94,388.00,VWS V14.01,2013-11-27 20:25:00,
2013-11-27 15:26:00,76.7,64.5,29.91,WNW,287,7.0,16.0,66,0.00,,FEW,1.94,388.00,VWS V14.01,2013-11-27 20:26:00,
2013-11-27 15:27:00,76.5,64.3,29.91,NNW,342,5.0,16.0,66,0.00,,FEW,1.94,381.00,VWS V14.01,2013-11-27 20:27:00,
2013-11-27 15:29:00,76.4,64.2,29.91,NW,306,7.0,16.0,66,0.00,,FEW,1.94,364.00,VWS V14.01,2013-11-27 20:29:00,
2013-11-27 15:30:00,76.4,64.2,29.91,WNW,290,7.0,16.0,66,0.00,,FEW,1.94,364.00,VWS V14.01,2013-11-27 20:30:00,
2013-11-27 15:31:00,76.4,64.2,29.91,WNW,290,7.0,16.0,66,0.00,,FEW,1.94,364.00,VWS V14.01,2013-11-27 20:31:00,
2013-11-27 15:32:00,76.4,64.6,29.91,NNW,348,5.0,7.0,67,0.00,,FEW,1.94,364.00,VWS V14.01,2013-11-27 20:32:00,
2013-11-27 15:35:00,76.5,64.7,29.91,NNW,336,9.0,12.0,67,0.00,,FEW,1.94,357.00,VWS V14.01,2013-11-27 20:35:00,
2013-11-27 15:36:00,76.5,64.3,29.91,North,350,7.0,12.0,66,0.00,,FEW,1.94,357.00,VWS V14.01,2013-11-27 20:36:00,
2013-11-27 15:37:00,76.5,64.3,29.91,WNW,291,6.0,12.0,66,0.00,,FEW,1.94,357.00,VWS V14.01,2013-11-27 20:37:00,
2013-11-27 15:38:00,76.4,64.2,29.91,NNW,344,12.0,12.0,66,0.00,,FEW,1.94,90.00,VWS V14.01,2013-11-27 20:38:00,
2013-11-27 15:40:00,76.2,64.4,29.91,NNW,327,9.0,13.0,67,0.00,,FEW,1.94,330.00,VWS V14.01,2013-11-27 20:40:00,
2013-11-27 15:41:00,76.1,64.4,29.91,NW,307,11.0,11.0,67,0.00,,FEW,1.94,327.00,VWS V14.01,2013-11-27 20:41:00,
2013-11-27 15:42:00,76.1,64.4,29.91,North,355,7.0,11.0,67,0.00,,FEW,1.94,323.00,VWS V14.01,2013-11-27 20:42:00,
2013-11-27 15:43:00,76.0,64.7,29.91,NNW,331,9.0,12.0,68,0.00,,FEW,1.94,315.00,VWS V14.01,2013-11-27 20:43:00,
2013-11-27 15:45:00,76.0,64.7,29.91,WNW,289,10.0,14.0,68,0.00,,FEW,1.94,104.00,VWS V14.01,2013-11-27 20:45:00,
2013-11-27 15:46:00,75.8,64.5,29.91,NNW,335,12.0,14.0,68,0.00,,FEW,1.94,276.00,VWS V14.01,2013-11-27 20:46:00,
2013-11-27 15:47:00,75.8,64.5,29.91,NNW,344,11.0,14.0,68,0.00,,FEW,1.94,276.00,VWS V14.01,2013-11-27 20:47:00,
2013-11-27 15:48:00,75.7,64.8,29.91,NW,323,7.0,16.0,69,0.00,,FEW,1.94,97.00,VWS V14.01,2013-11-27 20:48:00,
2013-11-27 15:50:00,75.6,64.7,29.91,NNW,348,11.0,16.0,69,0.00,,FEW,1.94,139.00,VWS V14.01,2013-11-27 20:50:00,
2013-11-27 15:51:00,75.5,65.0,29.91,WNW,290,5.0,10.0,70,0.00,,FEW,1.94,77.00,VWS V14.01,2013-11-27 20:51:00,
2013-11-27 15:52:00,75.4,64.9,29.91,WNW,303,10.0,10.0,70,0.00,,FEW,1.94,77.00,VWS V14.01,2013-11-27 20:52:00,
2013-11-27 15:53:00,75.3,64.4,29.91,WNW,300,6.0,13.0,69,0.00,,FEW,1.94,90.00,VWS V14.01,2013-11-27 20:53:00,
2013-11-27 15:54:00,75.2,64.3,29.91,WNW,300,16.0,16.0,69,0.00,,FEW,1.94,90.00,VWS V14.01,2013-11-27 20:54:00,
2013-11-27 15:55:00,75.2,64.8,29.91,NNE,15,5.0,16.0,70,0.00,,FEW,1.94,299.00,VWS V14.01,2013-11-27 20:55:00,
2013-11-27 15:57:00,75.2,64.8,29.91,NW,306,8.0,16.0,70,0.00,,FEW,1.94,294.00,VWS V14.01,2013-11-27 20:57:00,
2013-11-27 15:58:00,75.3,64.8,29.91,NNW,328,11.0,16.0,70,0.00,,FEW,1.94,294.00,VWS V14.01,2013-11-27 20:58:00,
2013-11-27 15:59:00,75.3,64.8,29.91,WNW,294,12.0,16.0,70,0.00,,FEW,1.94,294.00,VWS V14.01,2013-11-27 20:59:00,
2013-11-27 16:01:00,75.3,64.4,29.92,West,277,6.0,12.0,69,0.00,,FEW,1.94,279.00,VWS V14.01,2013-11-27 21:01:00,
2013-11-27 16:02:00,75.3,64.4,29.92,NNW,338,4.0,12.0,69,0.00,,FEW,1.94,190.00,VWS V14.01,2013-11-27 21:02:00,
2013-11-27 16:03:00,75.3,64.4,29.92,North,350,3.0,12.0,69,0.00,,FEW,1.94,121.00,VWS V14.01,2013-11-27 21:03:00,
2013-11-27 16:04:00,75.3,64.8,29.92,NW,313,9.0,13.0,70,0.00,,FEW,1.94,121.00,VWS V14.01,2013-11-27 21:04:00,
2013-11-27 16:06:00,75.3,64.8,29.92,NNW,339,4.0,13.0,70,0.00,,FEW,1.94,232.00,VWS V14.01,2013-11-27 21:06:00,
2013-11-27 16:07:00,75.3,64.8,29.92,NNW,329,7.0,13.0,70,0.00,,FEW,1.94,167.00,VWS V14.01,2013-11-27 21:07:00,
2013-11-27 16:08:00,75.3,64.8,29.92,NW,309,8.0,13.0,70,0.00,,FEW,1.94,98.00,VWS V14.01,2013-11-27 21:08:00,
2013-11-27 16:09:00,75.3,64.4,29.92,NNW,332,9.0,13.0,69,0.00,,FEW,1.94,98.00,VWS V14.01,2013-11-27 21:09:00,
2013-11-27 16:12:00,75.2,64.3,29.92,NNW,344,7.0,13.0,69,0.00,,FEW,1.94,232.00,VWS V14.01,2013-11-27 21:12:00,
2013-11-27 16:13:00,75.1,63.8,29.92,NNW,338,4.0,13.0,68,0.00,,FEW,1.94,174.00,VWS V14.01,2013-11-27 21:13:00,
2013-11-27 16:14:00,75.1,64.2,29.92,WNW,302,8.0,19.0,69,0.00,,FEW,1.94,221.00,VWS V14.01,2013-11-27 21:14:00,
2013-11-27 16:17:00,75.1,64.2,29.92,NNW,333,7.0,19.0,69,0.00,,FEW,1.94,216.00,VWS V14.01,2013-11-27 21:17:00,
2013-11-27 16:18:00,75.1,64.7,29.92,North,360,7.0,19.0,70,0.00,,FEW,1.94,218.00,VWS V14.01,2013-11-27 21:18:00,
2013-11-27 16:19:00,75.1,64.7,29.92,NW,320,8.0,19.0,70,0.00,,FEW,1.94,220.00,VWS V14.01,2013-11-27 21:19:00,
2013-11-27 16:22:00,75.1,64.7,29.92,NNW,348,11.0,14.0,70,0.00,,FEW,1.94,204.00,VWS V14.01,2013-11-27 21:22:00,
2013-11-27 16:23:00,75.1,64.7,29.92,NW,306,10.0,14.0,70,0.00,,FEW,1.94,179.00,VWS V14.01,2013-11-27 21:23:00,
2013-11-27 16:24:00,75.1,64.2,29.92,North,355,9.0,14.0,69,0.00,,FEW,1.94,197.00,VWS V14.01,2013-11-27 21:24:00,
2013-11-27 16:27:00,75.1,64.7,29.92,NNW,336,9.0,14.0,70,0.00,,FEW,1.94,58.00,VWS V14.01,2013-11-27 21:27:00,
2013-11-27 16:28:00,75.0,64.6,29.92,NW,304,4.0,14.0,70,0.00,,FEW,1.94,58.00,VWS V14.01,2013-11-27 21:28:00,
2013-11-27 16:29:00,75.0,64.2,29.92,NNW,340,10.0,15.0,69,0.00,,FEW,1.94,58.00,VWS V14.01,2013-11-27 21:29:00,
2013-11-27 16:30:00,74.9,64.1,29.92,West,259,7.0,15.0,69,0.00,,FEW,1.94,179.00,VWS V14.01,2013-11-27 21:30:00,
2013-11-27 16:32:00,74.8,64.4,29.92,NW,317,8.0,14.0,70,0.00,,FEW,1.94,153.00,VWS V14.01,2013-11-27 21:32:00,
2013-11-27 16:33:00,74.8,64.0,29.92,NW,321,12.0,14.0,69,0.00,,FEW,1.94,153.00,VWS V14.01,2013-11-27 21:33:00,
2013-11-27 16:35:00,74.7,64.3,29.92,NNW,346,10.0,15.0,70,0.00,,FEW,1.94,137.00,VWS V14.01,2013-11-27 21:35:00,
2013-11-27 16:38:00,74.6,64.2,29.92,North,360,15.0,15.0,70,0.00,,FEW,1.94,163.00,VWS V14.01,2013-11-27 21:38:00,
2013-11-27 16:39:00,74.6,64.2,29.92,North,5,10.0,15.0,70,0.00,,FEW,1.94,167.00,VWS V14.01,2013-11-27 21:39:00,
2013-11-27 16:40:00,74.6,64.2,29.92,NNW,333,8.0,15.0,70,0.00,,FEW,1.94,113.00,VWS V14.01,2013-11-27 21:40:00,
2013-11-27 16:43:00,74.5,64.1,29.92,NW,324,10.0,14.0,70,0.00,,FEW,1.94,97.00,VWS V14.01,2013-11-27 21:43:00,
2013-11-27 16:44:00,74.4,64.0,29.92,NNW,348,5.0,14.0,70,0.00,,FEW,1.94,86.00,VWS V14.01,2013-11-27 21:44:00,
2013-11-27 16:45:00,74.4,64.4,29.93,North,351,7.0,14.0,71,0.00,,FEW,1.94,69.00,VWS V14.01,2013-11-27 21:45:00,
2013-11-27 16:48:00,74.3,64.3,29.93,North,350,10.0,15.0,71,0.00,,FEW,1.94,98.00,VWS V14.01,2013-11-27 21:48:00,
2013-11-27 16:49:00,74.3,64.3,29.93,NW,323,12.0,15.0,71,0.00,,FEW,1.94,58.00,VWS V14.01,2013-11-27 21:49:00,
2013-11-27 16:50:00,74.2,63.8,29.93,NW,319,14.0,15.0,70,0.00,,FEW,1.94,42.00,VWS V14.01,2013-11-27 21:50:00,
2013-11-27 16:53:00,74.1,64.1,29.93,NNW,337,13.0,19.0,71,0.00,,FEW,1.94,54.00,VWS V14.01,2013-11-27 21:53:00,
2013-11-27 16:54:00,74.0,63.6,29.93,North,355,9.0,19.0,70,0.00,,FEW,1.94,67.00,VWS V14.01,2013-11-27 21:54:00,
2013-11-27 16:55:00,73.9,63.9,29.93,NW,310,8.0,19.0,71,0.00,,FEW,1.94,79.00,VWS V14.01,2013-11-27 21:55:00,
2013-11-27 16:58:00,73.9,63.9,29.93,NNW,333,11.0,19.0,71,0.00,,FEW,1.94,46.00,VWS V14.01,2013-11-27 21:58:00,
2013-11-27 16:59:00,73.9,63.9,29.93,NNW,331,6.0,19.0,71,0.00,,FEW,1.94,46.00,VWS V14.01,2013-11-27 21:59:00,
2013-11-27 17:00:00,73.8,63.4,29.94,WNW,294,11.0,19.0,70,0.00,,FEW,1.94,60.00,VWS V14.01,2013-11-27 22:00:00,
2013-11-27 17:03:00,73.7,63.3,29.94,NNE,14,7.0,15.0,70,0.00,,FEW,1.94,56.00,VWS V14.01,2013-11-27 22:03:00,
2013-11-27 17:04:00,73.7,63.3,29.94,WNW,301,11.0,15.0,70,0.00,,FEW,1.94,56.00,VWS V14.01,2013-11-27 22:04:00,
2013-11-27 17:05:00,73.7,63.7,29.94,NNW,344,5.0,15.0,71,0.00,,FEW,1.94,54.00,VWS V14.01,2013-11-27 22:05:00,
2013-11-27 17:06:00,73.7,63.7,29.94,NW,325,11.0,15.0,71,0.00,,FEW,1.94,51.00,VWS V14.01,2013-11-27 22:06:00,
2013-11-27 17:08:00,73.6,63.6,29.94,West,275,12.0,15.0,71,0.00,,FEW,1.94,42.00,VWS V14.01,2013-11-27 22:08:00,
2013-11-27 17:09:00,73.6,64.0,29.94,North,355,9.0,17.0,72,0.00,,FEW,1.94,33.00,VWS V14.01,2013-11-27 22:09:00,
2013-11-27 17:10:00,73.6,63.6,29.94,NNW,343,10.0,17.0,71,0.00,,FEW,1.94,32.00,VWS V14.01,2013-11-27 22:10:00,
2013-11-27 17:11:00,73.5,63.5,29.94,NNW,336,7.0,8.0,71,0.00,,FEW,1.94,39.00,VWS V14.01,2013-11-27 22:11:00,
2013-11-27 17:13:00,73.4,63.4,29.94,North,355,8.0,14.0,71,0.00,,FEW,1.94,26.00,VWS V14.01,2013-11-27 22:13:00,
2013-11-27 17:14:00,73.4,63.4,29.94,NW,309,5.0,14.0,71,0.00,,FEW,1.94,26.00,VWS V14.01,2013-11-27 22:14:00,
2013-11-27 17:16:00,73.4,63.8,29.94,NW,312,6.0,14.0,72,0.00,,FEW,1.94,21.00,VWS V14.01,2013-11-27 22:16:00,
2013-11-27 17:18:00,73.3,63.3,29.94,WNW,298,10.0,15.0,71,0.00,,FEW,1.94,18.00,VWS V14.01,2013-11-27 22:18:00,
2013-11-27 17:19:00,73.3,63.3,29.94,NNW,340,9.0,15.0,71,0.00,,FEW,1.94,18.00,VWS V14.01,2013-11-27 22:19:00,
2013-11-27 17:21:00,73.3,63.3,29.94,North,5,8.0,8.0,71,0.00,,FEW,1.94,16.00,VWS V14.01,2013-11-27 22:21:00,
2013-11-27 17:22:00,73.3,63.3,29.94,NW,318,6.0,8.0,71,0.00,,FEW,1.94,14.00,VWS V14.01,2013-11-27 22:22:00,
2013-11-27 17:24:00,73.2,63.2,29.94,NW,326,8.0,13.0,71,0.00,,FEW,1.94,12.00,VWS V14.01,2013-11-27 22:24:00,
2013-11-27 17:26:00,73.1,63.2,29.94,West,281,8.0,13.0,71,0.00,,FEW,1.94,9.00,VWS V14.01,2013-11-27 22:26:00,
2013-11-27 17:27:00,73.1,63.2,29.94,WNW,297,9.0,14.0,71,0.00,,FEW,1.94,9.00,VWS V14.01,2013-11-27 22:27:00,
2013-11-27 17:29:00,73.1,63.2,29.94,North,355,11.0,14.0,71,0.00,,FEW,1.94,7.00,VWS V14.01,2013-11-27 22:29:00,
2013-11-27 17:30:00,73.0,63.0,29.95,NNW,342,6.0,14.0,71,0.00,,FEW,1.94,7.00,VWS V14.01,2013-11-27 22:30:00,
2013-11-27 17:31:00,73.0,62.7,29.95,NNW,346,7.0,7.0,70,0.00,,FEW,1.94,5.00,VWS V14.01,2013-11-27 22:31:00,
2013-11-27 17:32:00,73.0,63.0,29.95,North,355,12.0,13.0,71,0.00,,FEW,1.94,5.00,VWS V14.01,2013-11-27 22:32:00,
2013-11-27 17:34:00,73.0,63.0,29.95,NNE,29,9.0,13.0,71,0.00,,FEW,1.94,5.00,VWS V14.01,2013-11-27 22:34:00,
2013-11-27 17:35:00,73.0,63.0,29.95,NW,310,9.0,13.0,71,0.00,,FEW,1.94,0.00,VWS V14.01,2013-11-27 22:35:00,
2013-11-27 17:36:00,73.0,63.0,29.95,NW,309,5.0,13.0,71,0.00,,FEW,1.94,0.00,VWS V14.01,2013-11-27 22:36:00,
2013-11-27 17:37:00,72.9,63.3,29.95,NNW,329,11.0,14.0,72,0.00,,FEW,1.94,0.00,VWS V14.01,2013-11-27 22:37:00,
2013-11-27 17:39:00,72.9,63.0,29.95,NNW,337,8.0,14.0,71,0.00,,FEW,1.94,0.00,VWS V14.01,2013-11-27 22:39:00,
2013-11-27 17:40:00,72.9,63.3,29.95,NNE,14,7.0,14.0,72,0.00,,FEW,1.94,0.00,VWS V14.01,2013-11-27 22:40:00,
2013-11-27 17:41:00,72.9,63.3,29.95,North,9,7.0,13.0,72,0.00,,FEW,1.94,0.00,VWS V14.01,2013-11-27 22:41:00,
2013-11-27 17:42:00,72.9,63.3,29.95,NNW,330,7.0,13.0,72,0.00,,FEW,1.94,0.00,VWS V14.01,2013-11-27 22:42:00,
2013-11-27 17:44:00,72.9,63.3,29.95,NW,309,3.0,13.0,72,0.00,,FEW,1.94,0.00,VWS V14.01,2013-11-27 22:44:00,
2013-11-27 17:45:00,72.9,63.3,29.96,NW,306,4.0,15.0,72,0.00,,FEW,1.94,0.00,VWS V14.01,2013-11-27 22:45:00,
2013-11-27 17:47:00,72.9,63.3,29.96,NNW,340,9.0,15.0,72,0.00,,FEW,1.94,0.00,VWS V14.01,2013-11-27 22:47:00,
2013-11-27 17:49:00,72.8,62.9,29.96,NW,323,10.0,15.0,71,0.00,,FEW,1.94,0.00,VWS V14.01,2013-11-27 22:49:00,
2013-11-27 17:50:00,72.8,62.9,29.96,WNW,302,7.0,15.0,71,0.00,,FEW,1.94,0.00,VWS V14.01,2013-11-27 22:50:00,
2013-11-27 17:52:00,72.8,62.9,29.96,NW,323,5.0,10.0,71,0.00,,FEW,1.94,0.00,VWS V14.01,2013-11-27 22:52:00,
2013-11-27 17:53:00,72.7,62.8,29.96,North,355,9.0,15.0,71,0.00,,FEW,1.94,0.00,VWS V14.01,2013-11-27 22:53:00,
2013-11-27 17:54:00,72.7,62.8,29.96,NW,324,7.0,15.0,71,0.00,,FEW,1.94,0.00,VWS V14.01,2013-11-27 22:54:00,
2013-11-27 17:55:00,72.7,62.8,29.96,NNW,342,12.0,15.0,71,0.00,,FEW,1.94,0.00,VWS V14.01,2013-11-27 22:55:00,
2013-11-27 17:57:00,72.7,62.8,29.96,NW,311,12.0,15.0,71,0.00,,FEW,1.94,0.00,VWS V14.01,2013-11-27 22:57:00,
2013-11-27 17:58:00,72.7,62.4,29.96,NNW,337,11.0,15.0,70,0.00,,FEW,1.94,0.00,VWS V14.01,2013-11-27 22:58:00,
2013-11-27 17:59:00,72.7,62.4,29.96,NNW,329,13.0,15.0,70,0.00,,FEW,1.94,0.00,VWS V14.01,2013-11-27 22:59:00,
2013-11-27 18:01:00,72.7,62.4,29.96,NNW,328,7.0,11.0,70,0.00,,FEW,1.94,0.00,VWS V14.01,2013-11-27 23:01:00,
2013-11-27 18:02:00,72.7,62.4,29.96,NW,323,8.0,11.0,70,0.00,,FEW,1.94,0.00,VWS V14.01,2013-11-27 23:02:00,
2013-11-27 18:03:00,72.7,62.4,29.96,North,355,6.0,11.0,70,0.00,,FEW,1.94,0.00,VWS V14.01,2013-11-27 23:03:00,
2013-11-27 18:04:00,72.7,62.4,29.96,NW,325,13.0,13.0,70,0.00,,FEW,1.94,0.00,VWS V14.01,2013-11-27 23:04:00,
2013-11-27 18:06:00,72.7,62.8,29.96,North,355,7.0,13.0,71,0.00,,FEW,1.94,0.00,VWS V14.01,2013-11-27 23:06:00,
2013-11-27 18:07:00,72.7,62.8,29.96,WNW,296,10.0,13.0,71,0.00,,FEW,1.94,0.00,VWS V14.01,2013-11-27 23:07:00,
2013-11-27 18:08:00,72.7,63.2,29.96,NNW,331,12.0,13.0,72,0.00,,FEW,1.94,0.00,VWS V14.01,2013-11-27 23:08:00,
2013-11-27 18:09:00,72.8,63.3,29.96,NNW,344,5.0,13.0,72,0.00,,FEW,1.94,0.00,VWS V14.01,2013-11-27 23:09:00,
2013-11-27 18:11:00,72.8,63.3,29.96,NW,315,10.0,11.0,72,0.00,,FEW,1.94,0.00,VWS V14.01,2013-11-27 23:11:00,
2013-11-27 18:12:00,72.7,62.8,29.96,NNW,342,6.0,11.0,71,0.00,,FEW,1.94,0.00,VWS V14.01,2013-11-27 23:12:00,
2013-11-27 18:13:00,72.7,62.8,29.96,NNW,347,8.0,11.0,71,0.00,,FEW,1.94,0.00,VWS V14.01,2013-11-27 23:13:00,
2013-11-27 18:14:00,72.7,62.8,29.96,NW,311,7.0,11.0,71,0.00,,FEW,1.94,0.00,VWS V14.01,2013-11-27 23:14:00,
2013-11-27 18:16:00,72.7,62.8,29.97,NNW,340,13.0,13.0,71,0.00,,FEW,1.94,0.00,VWS V14.01,2013-11-27 23:16:00,
2013-11-27 18:17:00,72.7,62.8,29.97,NNW,333,16.0,16.0,71,0.00,,FEW,1.94,0.00,VWS V14.01,2013-11-27 23:17:00,
2013-11-27 18:18:00,72.7,62.8,29.97,NW,322,9.0,16.0,71,0.00,,FEW,1.94,0.00,VWS V14.01,2013-11-27 23:18:00,
2013-11-27 18:19:00,72.7,62.4,29.97,NW,313,5.0,16.0,70,0.00,,FEW,1.94,0.00,VWS V14.01,2013-11-27 23:19:00,
2013-11-27 18:22:00,72.7,62.4,29.97,NNW,342,7.0,11.0,70,0.00,,FEW,1.94,0.00,VWS V14.01,2013-11-27 23:22:00,
2013-11-27 18:23:00,72.7,62.4,29.97,North,350,12.0,12.0,70,0.00,,FEW,1.94,0.00,VWS V14.01,2013-11-27 23:23:00,
2013-11-27 18:24:00,72.6,62.3,29.97,NNW,334,11.0,12.0,70,0.00,,FEW,1.94,0.00,VWS V14.01,2013-11-27 23:24:00,
2013-11-27 18:27:00,72.7,62.4,29.97,NW,315,12.0,14.0,70,0.00,,FEW,1.94,0.00,VWS V14.01,2013-11-27 23:27:00,
2013-11-27 18:28:00,72.7,62.4,29.97,North,355,10.0,14.0,70,0.00,,FEW,1.94,0.00,VWS V14.01,2013-11-27 23:28:00,
2013-11-27 18:29:00,72.7,62.4,29.97,NNW,344,11.0,18.0,70,0.00,,FEW,1.94,0.00,VWS V14.01,2013-11-27 23:29:00,
2013-11-27 18:32:00,72.7,62.4,29.98,NW,308,6.0,7.0,70,0.00,,FEW,1.94,0.00,VWS V14.01,2013-11-27 23:32:00,
2013-11-27 18:33:00,72.7,62.0,29.98,NNW,338,8.0,9.0,69,0.00,,FEW,1.94,0.00,VWS V14.01,2013-11-27 23:33:00,
2013-11-27 18:34:00,72.7,62.0,29.98,NNW,336,9.0,14.0,69,0.00,,FEW,1.94,0.00,VWS V14.01,2013-11-27 23:34:00,
2013-11-27 18:35:00,72.7,62.0,29.98,NNW,346,13.0,14.0,69,0.00,,FEW,1.94,0.00,VWS V14.01,2013-11-27 23:35:00,
2013-11-27 18:37:00,72.7,62.0,29.98,NW,316,16.0,16.0,69,0.00,,FEW,1.94,0.00,VWS V14.01,2013-11-27 23:37:00,
2013-11-27 18:38:00,72.7,62.0,29.98,North,351,13.0,16.0,69,0.00,,FEW,1.94,0.00,VWS V14.01,2013-11-27 23:38:00,
2013-11-27 18:40:00,72.7,62.0,29.98,NNW,348,10.0,16.0,69,0.00,,FEW,1.94,0.00,VWS V14.01,2013-11-27 23:40:00,
2013-11-27 18:43:00,72.8,62.5,29.98,NW,315,8.0,12.0,70,0.00,,FEW,1.94,0.00,VWS V14.01,2013-11-27 23:43:00,
2013-11-27 18:45:00,72.8,62.9,29.98,North,355,7.0,12.0,71,0.00,,FEW,1.94,0.00,VWS V14.01,2013-11-27 23:45:00,
2013-11-27 18:48:00,72.8,62.9,29.99,NW,322,7.0,14.0,71,0.00,,FEW,1.94,0.00,VWS V14.01,2013-11-27 23:48:00,
2013-11-27 18:50:00,72.7,62.4,29.99,NW,309,7.0,14.0,70,0.00,,FEW,1.94,0.00,VWS V14.01,2013-11-27 23:50:00,
2013-11-27 18:53:00,72.6,62.3,29.99,WNW,288,11.0,12.0,70,0.00,,FEW,1.94,0.00,VWS V14.01,2013-11-27 23:53:00,
2013-11-27 18:54:00,72.6,62.3,29.99,NW,308,6.0,12.0,70,0.00,,FEW,1.94,0.00,VWS V14.01,2013-11-27 23:54:00,
2013-11-27 18:55:00,72.6,62.3,29.99,WNW,294,8.0,12.0,70,0.00,,FEW,1.94,0.00,VWS V14.01,2013-11-27 23:55:00,
2013-11-27 18:58:00,72.6,63.1,29.99,NNW,329,6.0,14.0,72,0.00,,FEW,1.94,0.00,VWS V14.01,2013-11-27 23:58:00,
2013-11-27 18:59:00,72.6,63.1,29.99,NNW,327,7.0,14.0,72,0.00,,FEW,1.94,0.00,VWS V14.01,2013-11-27 23:59:00,
2013-11-27 19:00:00,72.6,63.1,29.99,NNW,329,8.0,14.0,72,0.00,,FEW,1.94,0.00,VWS V14.01,2013-11-28 00:00:00,
2013-11-27 19:03:00,72.6,63.1,29.99,NW,322,9.0,11.0,72,0.00,,FEW,1.94,0.00,VWS V14.01,2013-11-28 00:03:00,
2013-11-27 19:04:00,72.6,63.1,29.99,NNW,344,6.0,11.0,72,0.00,,FEW,1.94,0.00,VWS V14.01,2013-11-28 00:04:00,
2013-11-27 19:05:00,72.5,63.0,29.99,NNW,338,5.0,12.0,72,0.00,,FEW,1.94,0.00,VWS V14.01,2013-11-28 00:05:00,
2013-11-27 19:08:00,72.4,62.9,29.99,NW,311,9.0,14.0,72,0.00,,FEW,1.94,0.00,VWS V14.01,2013-11-28 00:08:00,
2013-11-27 19:09:00,72.4,62.9,29.99,NW,322,6.0,14.0,72,0.00,,FEW,1.94,0.00,VWS V14.01,2013-11-28 00:09:00,
2013-11-27 19:10:00,72.4,62.9,29.99,NW,319,6.0,14.0,72,0.00,,FEW,1.94,0.00,VWS V14.01,2013-11-28 00:10:00,
2013-11-27 19:14:00,72.4,63.3,29.99,NW,311,7.0,11.0,73,0.00,,FEW,1.94,0.00,VWS V14.01,2013-11-28 00:14:00,
2013-11-27 19:15:00,72.3,62.8,30.00,NW,309,7.0,13.0,72,0.00,,FEW,1.94,0.00,VWS V14.01,2013-11-28 00:15:00,
2013-11-27 19:19:00,72.3,63.2,30.00,NNW,327,3.0,15.0,73,0.00,,FEW,1.94,0.00,VWS V14.01,2013-11-28 00:19:00,
2013-11-27 19:20:00,72.3,62.8,30.00,North,11,5.0,15.0,72,0.00,,FEW,1.94,0.00,VWS V14.01,2013-11-28 00:20:00,
2013-11-27 19:21:00,72.2,62.7,30.00,North,355,7.0,15.0,72,0.00,,FEW,1.94,0.00,VWS V14.01,2013-11-28 00:21:00,
2013-11-27 19:24:00,72.1,62.2,30.00,NNW,333,7.0,10.0,71,0.00,,FEW,1.94,0.00,VWS V14.01,2013-11-28 00:24:00,
2013-11-27 19:25:00,72.2,62.3,30.00,North,349,5.0,10.0,71,0.00,,FEW,1.94,0.00,VWS V14.01,2013-11-28 00:25:00,
2013-11-27 19:26:00,72.2,62.3,30.00,North,5,6.0,10.0,71,0.00,,FEW,1.94,0.00,VWS V14.01,2013-11-28 00:26:00,
2013-11-27 19:29:00,72.1,61.8,30.00,WNW,290,6.0,10.0,70,0.00,,FEW,1.94,0.00,VWS V14.01,2013-11-28 00:29:00,
2013-11-27 19:30:00,72.1,61.8,30.00,WNW,300,7.0,10.0,70,0.00,,FEW,1.94,0.00,VWS V14.01,2013-11-28 00:30:00,
2013-11-27 19:31:00,72.1,61.8,30.00,NNW,335,4.0,4.0,70,0.00,,FEW,1.94,0.00,VWS V14.01,2013-11-28 00:31:00,
2013-11-27 19:34:00,72.1,61.8,30.00,WNW,300,7.0,12.0,70,0.00,,FEW,1.94,0.00,VWS V14.01,2013-11-28 00:34:00,
2013-11-27 19:35:00,72.1,61.8,30.00,NW,314,6.0,12.0,70,0.00,,FEW,1.94,0.00,VWS V14.01,2013-11-28 00:35:00,
2013-11-27 19:36:00,72.1,61.8,30.00,North,5,6.0,12.0,70,0.00,,FEW,1.94,0.00,VWS V14.01,2013-11-28 00:36:00,
2013-11-27 19:40:00,72.1,61.8,30.00,WNW,285,6.0,17.0,70,0.00,,FEW,1.94,0.00,VWS V14.01,2013-11-28 00:40:00,
2013-11-27 19:41:00,72.1,61.8,30.00,NW,325,9.0,9.0,70,0.00,,FEW,1.94,0.00,VWS V14.01,2013-11-28 00:41:00,
2013-11-27 19:45:00,72.1,62.2,30.00,North,5,5.0,11.0,71,0.00,,FEW,1.94,0.00,VWS V14.01,2013-11-28 00:45:00,
2013-11-27 19:46:00,72.1,62.2,30.01,West,281,5.0,11.0,71,0.00,,FEW,1.94,0.00,VWS V14.01,2013-11-28 00:46:00,
2013-11-27 19:47:00,72.1,61.8,30.01,NNW,333,8.0,14.0,70,0.00,,FEW,1.94,0.00,VWS V14.01,2013-11-28 00:47:00,
2013-11-27 19:50:00,72.1,61.4,30.01,NW,308,8.0,14.0,69,0.00,,FEW,1.94,0.00,VWS V14.01,2013-11-28 00:50:00,
2013-11-27 19:51:00,72.1,61.4,30.01,North,5,7.0,14.0,69,0.00,,FEW,1.94,0.00,VWS V14.01,2013-11-28 00:51:00,
2013-11-27 19:52:00,72.1,61.4,30.01,NNW,344,6.0,10.0,69,0.00,,FEW,1.94,0.00,VWS V14.01,2013-11-28 00:52:00,
2013-11-27 19:55:00,72.1,61.4,30.01,WNW,291,7.0,10.0,69,0.00,,FEW,1.94,0.00,VWS V14.01,2013-11-28 00:55:00,
2013-11-27 19:56:00,72.1,61.4,30.01,NNW,340,4.0,10.0,69,0.00,,FEW,1.94,0.00,VWS V14.01,2013-11-28 00:56:00,
2013-11-27 19:57:00,72.1,61.0,30.01,North,355,11.0,11.0,68,0.00,,FEW,1.94,0.00,VWS V14.01,2013-11-28 00:57:00,
2013-11-27 19:58:00,72.1,61.4,30.01,NW,315,11.0,12.0,69,0.00,,FEW,1.94,0.00,VWS V14.01,2013-11-28 00:58:00,
2013-11-27 20:00:00,72.1,61.4,30.02,NNW,342,3.0,12.0,69,0.00,,FEW,1.94,0.00,VWS V14.01,2013-11-28 01:00:00,
2013-11-27 20:01:00,72.1,61.0,30.02,NW,319,6.0,12.0,68,0.00,,FEW,1.94,0.00,VWS V14.01,2013-11-28 01:01:00,
2013-11-27 20:02:00,72.1,61.0,30.02,NW,315,7.0,9.0,68,0.00,,FEW,1.94,0.00,VWS V14.01,2013-11-28 01:02:00,
2013-11-27 20:04:00,72.1,61.0,30.02,NW,306,7.0,16.0,68,0.00,,FEW,1.94,0.00,VWS V14.01,2013-11-28 01:04:00,
2013-11-27 20:05:00,72.1,61.0,30.02,NW,306,9.0,16.0,68,0.00,,FEW,1.94,0.00,VWS V14.01,2013-11-28 01:05:00,
2013-11-27 20:06:00,72.1,61.0,30.02,North,360,8.0,16.0,68,0.00,,FEW,1.94,0.00,VWS V14.01,2013-11-28 01:06:00,
2013-11-27 20:07:00,72.1,61.0,30.02,NNW,348,9.0,16.0,68,0.00,,FEW,1.94,0.00,VWS V14.01,2013-11-28 01:07:00,
2013-11-27 20:09:00,72.1,61.0,30.02,North,350,3.0,16.0,68,0.00,,FEW,1.94,0.00,VWS V14.01,2013-11-28 01:09:00,
2013-11-27 20:10:00,72.2,61.5,30.02,NNW,334,5.0,16.0,69,0.00,,FEW,1.94,0.00,VWS V14.01,2013-11-28 01:10:00,
2013-11-27 20:11:00,72.2,61.5,30.02,North,5,6.0,16.0,69,0.00,,FEW,1.94,0.00,VWS V14.01,2013-11-28 01:11:00,
2013-11-27 20:12:00,72.2,61.1,30.02,NNW,333,4.0,11.0,68,0.00,,FEW,1.94,0.00,VWS V14.01,2013-11-28 01:12:00,
2013-11-27 20:13:00,72.2,61.1,30.02,WNW,301,5.0,11.0,68,0.00,,FEW,1.94,0.00,VWS V14.01,2013-11-28 01:13:00,
2013-11-27 20:14:00,72.2,61.1,30.02,NW,315,5.0,11.0,68,0.00,,FEW,1.94,0.00,VWS V14.01,2013-11-28 01:14:00,
2013-11-27 20:15:00,72.2,61.5,30.02,NW,307,7.0,11.0,69,0.00,,FEW,1.94,0.00,VWS V14.01,2013-11-28 01:15:00,
2013-11-27 20:16:00,72.2,61.5,30.02,NW,321,3.0,11.0,69,0.00,,FEW,1.94,0.00,VWS V14.01,2013-11-28 01:16:00,
2013-11-27 20:17:00,72.2,61.5,30.02,North,355,7.0,11.0,69,0.00,,FEW,1.94,0.00,VWS V14.01,2013-11-28 01:17:00,
2013-11-27 20:18:00,72.2,61.5,30.02,NW,321,7.0,11.0,69,0.00,,FEW,1.94,0.00,VWS V14.01,2013-11-28 01:18:00,
2013-11-27 20:19:00,72.2,61.1,30.02,NW,315,10.0,13.0,68,0.00,,FEW,1.94,0.00,VWS V14.01,2013-11-28 01:19:00,
2013-11-27 20:21:00,72.2,61.1,30.02,WNW,296,7.0,13.0,68,0.00,,FEW,1.94,0.00,VWS V14.01,2013-11-28 01:21:00,
2013-11-27 20:23:00,72.2,60.2,30.02,WNW,294,5.0,12.0,66,0.00,,FEW,1.94,0.00,VWS V14.01,2013-11-28 01:23:00,
2013-11-27 20:24:00,72.2,59.8,30.02,NW,306,3.0,12.0,65,0.00,,FEW,1.94,0.00,VWS V14.01,2013-11-28 01:24:00,
2013-11-27 20:26:00,72.3,60.7,30.02,NNW,339,6.0,12.0,67,0.00,,FEW,1.94,0.00,VWS V14.01,2013-11-28 01:26:00,
2013-11-27 20:28:00,72.5,63.0,30.02,NW,322,12.0,14.0,72,0.00,,FEW,1.94,0.00,VWS V14.01,2013-11-28 01:28:00,
2013-11-27 20:29:00,72.6,63.5,30.02,NW,311,5.0,14.0,73,0.00,,FEW,1.94,0.00,VWS V14.01,2013-11-28 01:29:00,
2013-11-27 20:30:00,72.6,63.8,30.03,NNW,335,9.0,14.0,74,0.00,,FEW,1.94,0.00,VWS V14.01,2013-11-28 01:30:00,
2013-11-27 20:31:00,72.6,63.8,30.03,NNW,329,12.0,14.0,74,0.00,,FEW,1.94,0.00,VWS V14.01,2013-11-28 01:31:00,
2013-11-27 20:33:00,72.5,63.8,30.03,NNE,28,12.0,14.0,74,0.00,,FEW,1.94,0.00,VWS V14.01,2013-11-28 01:33:00,
2013-11-27 20:34:00,72.4,64.0,30.03,NNW,344,7.0,14.0,75,0.00,,FEW,1.94,0.00,VWS V14.01,2013-11-28 01:34:00,
2013-11-27 20:35:00,72.3,63.9,30.03,WNW,296,8.0,14.0,75,0.00,,FEW,1.94,0.00,VWS V14.01,2013-11-28 01:35:00,
2013-11-27 20:36:00,72.3,63.9,30.03,North,360,9.0,14.0,75,0.00,,FEW,1.94,0.00,VWS V14.01,2013-11-28 01:36:00,
2013-11-27 20:38:00,72.1,63.8,30.03,NW,321,13.0,17.0,75,0.00,,FEW,1.94,0.00,VWS V14.01,2013-11-28 01:38:00,
2013-11-27 20:39:00,72.0,63.7,30.03,NNW,328,10.0,17.0,75,0.00,,FEW,1.94,0.00,VWS V14.01,2013-11-28 01:39:00,
2013-11-27 20:40:00,71.9,63.9,30.03,North,350,8.0,17.0,76,0.00,,FEW,1.94,0.00,VWS V14.01,2013-11-28 01:40:00,
2013-11-27 20:41:00,71.9,63.9,30.03,North,351,10.0,14.0,76,0.00,,FEW,1.94,0.00,VWS V14.01,2013-11-28 01:41:00,
2013-11-27 20:43:00,71.8,63.8,30.03,NNW,341,13.0,14.0,76,0.00,,FEW,1.94,0.00,VWS V14.01,2013-11-28 01:43:00,
2013-11-27 20:45:00,71.7,63.7,30.03,North,5,10.0,15.0,76,0.00,,FEW,1.94,0.00,VWS V14.01,2013-11-28 01:45:00,
2013-11-27 20:46:00,71.7,64.1,30.03,NW,324,9.0,15.0,77,0.00,,FEW,1.94,0.00,VWS V14.01,2013-11-28 01:46:00,
2013-11-27 20:47:00,71.7,64.1,30.03,North,5,5.0,16.0,77,0.00,,FEW,1.94,0.00,VWS V14.01,2013-11-28 01:47:00,
2013-11-27 20:48:00,71.6,63.6,30.03,NNW,331,15.0,16.0,76,0.00,,FEW,1.94,0.00,VWS V14.01,2013-11-28 01:48:00,
2013-11-27 20:50:00,71.6,63.6,30.03,NNE,16,11.0,17.0,76,0.00,,FEW,1.94,0.00,VWS V14.01,2013-11-28 01:50:00,
2013-11-27 20:51:00,71.5,63.5,30.03,NW,319,10.0,14.0,76,0.00,,FEW,1.94,0.00,VWS V14.01,2013-11-28 01:51:00,
2013-11-27 20:52:00,71.5,63.5,30.03,NNW,338,13.0,14.0,76,0.00,,FEW,1.94,0.00,VWS V14.01,2013-11-28 01:52:00,
2013-11-27 20:53:00,71.5,63.5,30.03,North,360,9.0,16.0,76,0.00,,FEW,1.94,0.00,VWS V14.01,2013-11-28 01:53:00,
2013-11-27 20:55:00,71.5,63.9,30.03,North,355,7.0,16.0,77,0.00,,FEW,1.94,0.00,VWS V14.01,2013-11-28 01:55:00,
2013-11-27 20:56:00,71.4,63.8,30.03,NNW,346,10.0,16.0,77,0.00,,FEW,1.94,0.00,VWS V14.01,2013-11-28 01:56:00,
2013-11-27 20:57:00,71.3,63.3,30.03,NNW,329,10.0,16.0,76,0.00,,FEW,1.94,0.00,VWS V14.01,2013-11-28 01:57:00,
2013-11-27 20:58:00,71.3,63.3,30.03,NNW,341,10.0,16.0,76,0.00,,FEW,1.94,0.00,VWS V14.01,2013-11-28 01:58:00,
2013-11-27 21:00:00,71.3,63.3,30.04,NNW,336,11.0,16.0,76,0.00,,FEW,1.94,0.00,VWS V14.01,2013-11-28 02:00:00,
2013-11-27 21:01:00,71.2,63.3,30.04,North,355,10.0,13.0,76,0.00,,FEW,1.94,0.00,VWS V14.01,2013-11-28 02:01:00,
2013-11-27 21:02:00,71.3,63.3,30.04,North,355,9.0,13.0,76,0.00,,FEW,1.94,0.00,VWS V14.01,2013-11-28 02:02:00,
2013-11-27 21:03:00,71.2,63.3,30.04,NNW,328,9.0,15.0,76,0.00,,FEW,1.94,0.00,VWS V14.01,2013-11-28 02:03:00,
2013-11-27 21:05:00,71.2,63.3,30.04,NNW,336,8.0,15.0,76,0.00,,FEW,1.94,0.00,VWS V14.01,2013-11-28 02:05:00,
2013-11-27 21:06:00,71.2,63.6,30.04,NNW,334,13.0,15.0,77,0.00,,FEW,1.94,0.00,VWS V14.01,2013-11-28 02:06:00,
2013-11-27 21:07:00,71.3,63.7,30.04,NNE,17,10.0,15.0,77,0.00,,FEW,1.94,0.00,VWS V14.01,2013-11-28 02:07:00,
2013-11-27 21:09:00,71.3,63.7,30.04,North,5,12.0,15.0,77,0.00,,FEW,1.94,0.00,VWS V14.01,2013-11-28 02:09:00,
2013-11-27 21:10:00,71.3,63.7,30.04,NNW,346,10.0,15.0,77,0.00,,FEW,1.94,0.00,VWS V14.01,2013-11-28 02:10:00,
2013-11-27 21:11:00,71.3,63.7,30.04,North,360,9.0,15.0,77,0.00,,FEW,1.94,0.00,VWS V14.01,2013-11-28 02:11:00,
2013-11-27 21:12:00,71.3,63.7,30.04,North,5,7.0,15.0,77,0.00,,FEW,1.94,0.00,VWS V14.01,2013-11-28 02:12:00,
2013-11-27 21:13:00,71.3,63.7,30.04,North,350,11.0,15.0,77,0.00,,FEW,1.94,0.00,VWS V14.01,2013-11-28 02:13:00,
2013-11-27 21:14:00,71.3,63.7,30.04,North,5,8.0,15.0,77,0.00,,FEW,1.94,0.00,VWS V14.01,2013-11-28 02:14:00,
2013-11-27 21:15:00,71.4,64.2,30.04,North,5,7.0,15.0,78,0.00,,FEW,1.94,0.00,VWS V14.01,2013-11-28 02:15:00,
2013-11-27 21:16:00,71.3,63.7,30.04,North,5,10.0,15.0,77,0.00,,FEW,1.94,0.00,VWS V14.01,2013-11-28 02:16:00,
2013-11-27 21:17:00,71.3,63.7,30.04,NNW,345,10.0,15.0,77,0.00,,FEW,1.94,0.00,VWS V14.01,2013-11-28 02:17:00,
2013-11-27 21:18:00,71.3,63.7,30.04,NNW,342,10.0,15.0,77,0.00,,FEW,1.94,0.00,VWS V14.01,2013-11-28 02:18:00,
2013-11-27 21:19:00,71.2,63.6,30.04,North,355,13.0,16.0,77,0.00,,FEW,1.94,0.00,VWS V14.01,2013-11-28 02:19:00,
2013-11-27 21:20:00,71.1,63.5,30.04,NW,321,13.0,19.0,77,0.00,,FEW,1.94,0.00,VWS V14.01,2013-11-28 02:20:00,
2013-11-27 21:21:00,71.1,63.5,30.04,North,10,5.0,13.0,77,0.00,,FEW,1.94,0.00,VWS V14.01,2013-11-28 02:21:00,
2013-11-27 21:22:00,71.1,63.5,30.04,North,350,13.0,13.0,77,0.00,,FEW,1.94,0.00,VWS V14.01,2013-11-28 02:22:00,
2013-11-27 21:23:00,71.0,63.4,30.04,North,360,11.0,13.0,77,0.00,,FEW,1.94,0.00,VWS V14.01,2013-11-28 02:23:00,
2013-11-27 21:24:00,71.0,63.4,30.04,North,11,8.0,17.0,77,0.00,,FEW,1.94,0.00,VWS V14.01,2013-11-28 02:24:00,
2013-11-27 21:26:00,70.8,62.9,30.04,North,355,7.0,17.0,76,0.00,,FEW,1.94,0.00,VWS V14.01,2013-11-28 02:26:00,
2013-11-27 21:27:00,70.8,62.9,30.04,NE,34,12.0,17.0,76,0.00,,FEW,1.94,0.00,VWS V14.01,2013-11-28 02:27:00,
2013-11-27 21:28:00,70.8,62.9,30.04,NE,53,10.0,17.0,76,0.00,,FEW,1.94,0.00,VWS V14.01,2013-11-28 02:28:00,
2013-11-27 21:29:00,70.8,62.9,30.04,NW,325,10.0,17.0,76,0.00,,FEW,1.94,0.00,VWS V14.01,2013-11-28 02:29:00,
2013-11-27 21:30:00,70.8,62.9,30.05,NW,315,11.0,17.0,76,0.00,,FEW,1.94,0.00,VWS V14.01,2013-11-28 02:30:00,
2013-11-27 21:32:00,70.7,63.1,30.05,North,351,16.0,16.0,77,0.00,,FEW,1.94,0.00,VWS V14.01,2013-11-28 02:32:00,
2013-11-27 21:33:00,70.7,63.1,30.05,NNW,338,10.0,16.0,77,0.00,,FEW,1.94,0.00,VWS V14.01,2013-11-28 02:33:00,
2013-11-27 21:35:00,70.7,62.8,30.05,North,355,4.0,16.0,76,0.00,,FEW,1.94,0.00,VWS V14.01,2013-11-28 02:35:00,
2013-11-27 21:37:00,70.7,63.1,30.05,NNW,345,9.0,16.0,77,0.00,,FEW,1.94,0.00,VWS V14.01,2013-11-28 02:37:00,
2013-11-27 21:38:00,70.7,63.1,30.05,NNW,348,13.0,16.0,77,0.00,,FEW,1.94,0.00,VWS V14.01,2013-11-28 02:38:00,
2013-11-27 21:40:00,70.7,63.1,30.05,North,5,10.0,16.0,77,0.00,,FEW,1.94,0.00,VWS V14.01,2013-11-28 02:40:00,
2013-11-27 21:42:00,70.7,62.8,30.05,NNW,347,7.0,15.0,76,0.00,,FEW,1.94,0.00,VWS V14.01,2013-11-28 02:42:00,
2013-11-27 21:43:00,70.7,62.8,30.05,NNW,342,8.0,15.0,76,0.00,,FEW,1.94,0.00,VWS V14.01,2013-11-28 02:43:00,
2013-11-27 21:45:00,70.7,63.1,30.05,NNE,25,8.0,15.0,77,0.00,,FEW,1.94,0.00,VWS V14.01,2013-11-28 02:45:00,
2013-11-27 21:46:00,70.7,63.1,30.05,North,9,7.0,15.0,77,0.00,,FEW,1.94,0.00,VWS V14.01,2013-11-28 02:46:00,
2013-11-27 21:47:00,70.7,63.1,30.05,NNW,340,10.0,15.0,77,0.00,,FEW,1.94,0.00,VWS V14.01,2013-11-28 02:47:00,
2013-11-27 21:49:00,70.7,63.1,30.05,NNW,344,7.0,15.0,77,0.00,,FEW,1.94,0.00,VWS V14.01,2013-11-28 02:49:00,
2013-11-27 21:50:00,70.7,63.1,30.05,NNW,328,7.0,15.0,77,0.00,,FEW,1.94,0.00,VWS V14.01,2013-11-28 02:50:00,
2013-11-27 21:51:00,70.6,63.0,30.05,NW,326,12.0,12.0,77,0.00,,FEW,1.94,0.00,VWS V14.01,2013-11-28 02:51:00,
2013-11-27 21:52:00,70.6,63.0,30.05,NNE,31,6.0,12.0,77,0.00,,FEW,1.94,0.00,VWS V14.01,2013-11-28 02:52:00,
2013-11-27 21:53:00,70.6,63.0,30.05,NNE,15,9.0,12.0,77,0.00,,FEW,1.94,0.00,VWS V14.01,2013-11-28 02:53:00,
2013-11-27 21:54:00,70.6,63.0,30.05,NNW,348,10.0,13.0,77,0.00,,FEW,1.94,0.00,VWS V14.01,2013-11-28 02:54:00,
2013-11-27 21:56:00,70.6,63.4,30.05,North,355,8.0,13.0,78,0.00,,FEW,1.94,0.00,VWS V14.01,2013-11-28 02:56:00,
2013-11-27 21:57:00,70.6,63.4,30.05,North,349,7.0,13.0,78,0.00,,FEW,1.94,0.00,VWS V14.01,2013-11-28 02:57:00,
2013-11-27 21:58:00,70.6,63.4,30.05,NE,43,6.0,13.0,78,0.00,,FEW,1.94,0.00,VWS V14.01,2013-11-28 02:58:00,
2013-11-27 21:59:00,70.6,63.4,30.05,North,5,12.0,13.0,78,0.00,,FEW,1.94,0.00,VWS V14.01,2013-11-28 02:59:00,
2013-11-27 22:01:00,70.5,63.3,30.06,North,5,10.0,10.0,78,0.00,,FEW,1.94,0.00,VWS V14.01,2013-11-28 03:01:00,
2013-11-27 22:02:00,70.5,63.3,30.06,NNW,345,8.0,10.0,78,0.00,,FEW,1.94,0.00,VWS V14.01,2013-11-28 03:02:00,
2013-11-27 22:03:00,70.4,63.2,30.06,NNE,15,9.0,11.0,78,0.00,,FEW,1.94,0.00,VWS V14.01,2013-11-28 03:03:00,
2013-11-27 22:04:00,70.4,63.2,30.06,NNE,13,7.0,12.0,78,0.00,,FEW,1.94,0.00,VWS V14.01,2013-11-28 03:04:00,
2013-11-27 22:05:00,70.4,63.2,30.06,North,11,12.0,12.0,78,0.00,,FEW,1.94,0.00,VWS V14.01,2013-11-28 03:05:00,
2013-11-27 22:06:00,70.3,63.1,30.06,North,5,8.0,14.0,78,0.00,,FEW,1.94,0.00,VWS V14.01,2013-11-28 03:06:00,
2013-11-27 22:07:00,70.3,63.1,30.06,NNE,30,11.0,14.0,78,0.00,,FEW,1.94,0.00,VWS V14.01,2013-11-28 03:07:00,
2013-11-27 22:08:00,70.3,63.1,30.06,NNW,331,12.0,14.0,78,0.00,,FEW,1.94,0.00,VWS V14.01,2013-11-28 03:08:00,
2013-11-27 22:09:00,70.2,63.0,30.06,NNW,347,10.0,14.0,78,0.00,,FEW,1.94,0.00,VWS V14.01,2013-11-28 03:09:00,
2013-11-27 22:10:00,70.2,63.0,30.06,NE,49,5.0,14.0,78,0.00,,FEW,1.94,0.00,VWS V14.01,2013-11-28 03:10:00,
2013-11-27 22:12:00,70.1,62.9,30.06,North,5,9.0,13.0,78,0.00,,FEW,1.94,0.00,VWS V14.01,2013-11-28 03:12:00,
2013-11-27 22:13:00,70.0,62.8,30.06,North,9,6.0,13.0,78,0.00,,FEW,1.94,0.00,VWS V14.01,2013-11-28 03:13:00,
2013-11-27 22:14:00,70.0,62.8,30.06,NNE,21,9.0,13.0,78,0.00,,FEW,1.94,0.00,VWS V14.01,2013-11-28 03:14:00,
2013-11-27 22:15:00,70.0,62.8,30.06,NE,38,9.0,13.0,78,0.00,,FEW,1.94,0.00,VWS V14.01,2013-11-28 03:15:00,
2013-11-27 22:17:00,69.9,62.7,30.06,North,5,10.0,13.0,78,0.00,,FEW,1.94,0.00,VWS V14.01,2013-11-28 03:17:00,
2013-11-27 22:19:00,69.8,63.0,30.06,NNE,13,9.0,14.0,79,0.00,,FEW,1.94,0.00,VWS V14.01,2013-11-28 03:19:00,
2013-11-27 22:20:00,69.7,62.5,30.06,North,9,10.0,14.0,78,0.00,,FEW,1.94,0.00,VWS V14.01,2013-11-28 03:20:00,
2013-11-27 22:22:00,69.6,62.4,30.06,NNE,18,3.0,11.0,78,0.00,,FEW,1.94,0.00,VWS V14.01,2013-11-28 03:22:00,
2013-11-27 22:24:00,69.5,62.7,30.06,NNE,22,9.0,14.0,79,0.00,,FEW,1.94,0.00,VWS V14.01,2013-11-28 03:24:00,
2013-11-27 22:25:00,69.5,62.7,30.06,NNW,346,12.0,14.0,79,0.00,,FEW,1.94,0.00,VWS V14.01,2013-11-28 03:25:00,
2013-11-27 22:27:00,69.4,62.6,30.06,NNW,338,5.0,14.0,79,0.00,,FEW,1.94,0.00,VWS V14.01,2013-11-28 03:27:00,
2013-11-27 22:28:00,69.4,62.6,30.06,North,360,9.0,14.0,79,0.00,,FEW,1.94,0.00,VWS V14.01,2013-11-28 03:28:00,
2013-11-27 22:30:00,69.4,62.6,30.06,NNE,20,10.0,14.0,79,0.00,,FEW,1.94,0.00,VWS V14.01,2013-11-28 03:30:00,
2013-11-27 22:32:00,69.2,62.4,30.07,North,350,10.0,10.0,79,0.00,,FEW,1.94,0.00,VWS V14.01,2013-11-28 03:32:00,
2013-11-27 22:33:00,69.2,62.4,30.07,NNE,26,12.0,12.0,79,0.00,,FEW,1.94,0.00,VWS V14.01,2013-11-28 03:33:00,
2013-11-27 22:35:00,69.1,62.3,30.07,NE,46,7.0,13.0,79,0.00,,FEW,1.94,0.00,VWS V14.01,2013-11-28 03:35:00,
2013-11-27 22:38:00,69.0,62.2,30.07,NNE,22,6.0,14.0,79,0.00,,FEW,1.94,0.00,VWS V14.01,2013-11-28 03:38:00,
2013-11-27 22:40:00,69.0,62.2,30.07,ENE,61,7.0,14.0,79,0.00,,FEW,1.94,0.00,VWS V14.01,2013-11-28 03:40:00,
2013-11-27 22:41:00,68.9,62.1,30.07,North,5,13.0,14.0,79,0.00,,FEW,1.94,0.00,VWS V14.01,2013-11-28 03:41:00,
2013-11-27 22:43:00,68.8,62.0,30.07,NNE,15,5.0,14.0,79,0.00,,FEW,1.94,0.00,VWS V14.01,2013-11-28 03:43:00,
2013-11-27 22:45:00,68.8,62.0,30.08,North,9,12.0,14.0,79,0.00,,FEW,1.94,0.00,VWS V14.01,2013-11-28 03:45:00,
2013-11-27 22:46:00,68.7,61.9,30.08,NNE,14,10.0,14.0,79,0.00,,FEW,1.94,0.00,VWS V14.01,2013-11-28 03:46:00,
2013-11-27 22:48:00,68.6,61.8,30.08,NNE,29,13.0,15.0,79,0.00,,FEW,1.94,0.00,VWS V14.01,2013-11-28 03:48:00,
2013-11-27 22:50:00,68.5,61.4,30.08,North,355,12.0,15.0,78,0.00,,FEW,1.94,0.00,VWS V14.01,2013-11-28 03:50:00,
2013-11-27 22:51:00,68.5,61.4,30.08,NE,51,5.0,15.0,78,0.00,,FEW,1.94,0.00,VWS V14.01,2013-11-28 03:51:00,
2013-11-27 22:52:00,68.4,61.3,30.08,NNE,19,13.0,13.0,78,0.00,,FEW,1.94,0.00,VWS V14.01,2013-11-28 03:52:00,
2013-11-27 22:53:00,68.4,61.3,30.08,NNE,19,7.0,13.0,78,0.00,,FEW,1.94,0.00,VWS V14.01,2013-11-28 03:53:00,
2013-11-27 22:55:00,68.4,61.3,30.08,NE,34,6.0,16.0,78,0.00,,FEW,1.94,0.00,VWS V14.01,2013-11-28 03:55:00,
2013-11-27 22:56:00,68.4,61.3,30.08,North,360,9.0,16.0,78,0.00,,FEW,1.94,0.00,VWS V14.01,2013-11-28 03:56:00,
2013-11-27 22:57:00,68.3,61.2,30.08,North,5,6.0,16.0,78,0.00,,FEW,1.94,0.00,VWS V14.01,2013-11-28 03:57:00,
2013-11-27 22:58:00,68.3,61.2,30.08,North,350,7.0,16.0,78,0.00,,FEW,1.94,0.00,VWS V14.01,2013-11-28 03:58:00,
2013-11-27 23:00:00,68.3,61.2,30.08,NNW,328,8.0,16.0,78,0.00,,FEW,1.94,0.00,VWS V14.01,2013-11-28 04:00:00,
2013-11-27 23:01:00,68.3,61.2,30.08,NNE,24,9.0,15.0,78,0.00,,FEW,1.94,0.00,VWS V14.01,2013-11-28 04:01:00,
2013-11-27 23:02:00,68.3,61.2,30.08,NNE,28,5.0,15.0,78,0.00,,FEW,1.94,0.00,VWS V14.01,2013-11-28 04:02:00,
2013-11-27 23:03:00,68.3,61.2,30.08,NNW,327,8.0,15.0,78,0.00,,FEW,1.94,0.00,VWS V14.01,2013-11-28 04:03:00,
2013-11-27 23:05:00,68.2,61.1,30.08,NE,44,8.0,15.0,78,0.00,,FEW,1.94,0.00,VWS V14.01,2013-11-28 04:05:00,
2013-11-27 23:06:00,68.2,61.1,30.08,NNE,24,9.0,15.0,78,0.00,,FEW,1.94,0.00,VWS V14.01,2013-11-28 04:06:00,
2013-11-27 23:07:00,68.2,61.1,30.08,North,9,13.0,15.0,78,0.00,,FEW,1.94,0.00,VWS V14.01,2013-11-28 04:07:00,
2013-11-27 23:08:00,68.2,61.1,30.08,NNE,16,4.0,15.0,78,0.00,,FEW,1.94,0.00,VWS V14.01,2013-11-28 04:08:00,
2013-11-27 23:09:00,68.1,61.0,30.08,NNE,29,6.0,15.0,78,0.00,,FEW,1.94,0.00,VWS V14.01,2013-11-28 04:09:00,
2013-11-27 23:10:00,68.1,61.0,30.08,NNE,13,7.0,15.0,78,0.00,,FEW,1.94,0.00,VWS V14.01,2013-11-28 04:10:00,
2013-11-27 23:11:00,68.1,61.0,30.08,North,5,9.0,9.0,78,0.00,,FEW,1.94,0.00,VWS V14.01,2013-11-28 04:11:00,
2013-11-27 23:12:00,68.0,60.9,30.08,NNE,30,5.0,13.0,78,0.00,,FEW,1.94,0.00,VWS V14.01,2013-11-28 04:12:00,
2013-11-27 23:13:00,68.0,60.9,30.08,ENE,59,8.0,13.0,78,0.00,,FEW,1.94,0.00,VWS V14.01,2013-11-28 04:13:00,
2013-11-27 23:14:00,67.9,60.8,30.08,NNE,20,3.0,13.0,78,0.00,,FEW,1.94,0.00,VWS V14.01,2013-11-28 04:14:00,
2013-11-27 23:16:00,67.9,60.8,30.08,NNE,32,5.0,13.0,78,0.00,,FEW,1.94,0.00,VWS V14.01,2013-11-28 04:16:00,
2013-11-27 23:17:00,67.9,60.8,30.08,North,5,11.0,13.0,78,0.00,,FEW,1.94,0.00,VWS V14.01,2013-11-28 04:17:00,
2013-11-27 23:18:00,67.8,60.7,30.08,NNE,13,6.0,15.0,78,0.00,,FEW,1.94,0.00,VWS V14.01,2013-11-28 04:18:00,
2013-11-27 23:19:00,67.8,60.7,30.08,NNE,21,4.0,15.0,78,0.00,,FEW,1.94,0.00,VWS V14.01,2013-11-28 04:19:00,
2013-11-27 23:21:00,67.7,60.6,30.08,North,360,7.0,7.0,78,0.00,,FEW,1.94,0.00,VWS V14.01,2013-11-28 04:21:00,
2013-11-27 23:22:00,67.7,61.0,30.08,NNE,31,4.0,10.0,79,0.00,,FEW,1.94,0.00,VWS V14.01,2013-11-28 04:22:00,
2013-11-27 23:23:00,67.7,60.6,30.08,NNE,27,7.0,14.0,78,0.00,,FEW,1.94,0.00,VWS V14.01,2013-11-28 04:23:00,
2013-11-27 23:24:00,67.7,60.6,30.08,NNE,24,7.0,14.0,78,0.00,,FEW,1.94,0.00,VWS V14.01,2013-11-28 04:24:00,
2013-11-27 23:26:00,67.6,60.5,30.08,North,360,6.0,14.0,78,0.00,,FEW,1.94,0.00,VWS V14.01,2013-11-28 04:26:00,
2013-11-27 23:27:00,67.6,60.5,30.08,North,5,9.0,14.0,78,0.00,,FEW,1.94,0.00,VWS V14.01,2013-11-28 04:27:00,
2013-11-27 23:28:00,67.6,60.5,30.08,North,355,6.0,14.0,78,0.00,,FEW,1.94,0.00,VWS V14.01,2013-11-28 04:28:00,
2013-11-27 23:29:00,67.6,60.5,30.08,NNE,12,9.0,14.0,78,0.00,,FEW,1.94,0.00,VWS V14.01,2013-11-28 04:29:00,
2013-11-27 23:31:00,67.6,60.5,30.08,North,5,9.0,9.0,78,0.00,,FEW,1.94,0.00,VWS V14.01,2013-11-28 04:31:00,
2013-11-27 23:32:00,67.5,60.4,30.08,North,5,5.0,10.0,78,0.00,,FEW,1.94,0.00,VWS V14.01,2013-11-28 04:32:00,
2013-11-27 23:33:00,67.5,60.8,30.08,NNE,19,6.0,10.0,79,0.00,,FEW,1.94,0.00,VWS V14.01,2013-11-28 04:33:00,
2013-11-27 23:34:00,67.5,60.8,30.08,North,350,12.0,12.0,79,0.00,,FEW,1.94,0.00,VWS V14.01,2013-11-28 04:34:00,
2013-11-27 23:36:00,67.5,60.4,30.08,North,349,7.0,12.0,78,0.00,,FEW,1.94,0.00,VWS V14.01,2013-11-28 04:36:00,
2013-11-27 23:38:00,67.5,60.8,30.08,NE,38,8.0,13.0,79,0.00,,FEW,1.94,0.00,VWS V14.01,2013-11-28 04:38:00,
2013-11-27 23:39:00,67.5,60.8,30.08,NE,37,5.0,14.0,79,0.00,,FEW,1.94,0.00,VWS V14.01,2013-11-28 04:39:00,
2013-11-27 23:41:00,67.5,60.8,30.08,NNE,33,5.0,9.0,79,0.00,,FEW,1.94,0.00,VWS V14.01,2013-11-28 04:41:00,
2013-11-27 23:43:00,67.4,60.7,30.08,NNE,33,9.0,14.0,79,0.00,,FEW,1.94,0.00,VWS V14.01,2013-11-28 04:43:00,
2013-11-27 23:44:00,67.4,60.7,30.08,NNE,28,14.0,14.0,79,0.00,,FEW,1.94,0.00,VWS V14.01,2013-11-28 04:44:00,
2013-11-27 23:45:00,67.4,60.7,30.08,NNE,17,6.0,14.0,79,0.00,,FEW,1.94,0.00,VWS V14.01,2013-11-28 04:45:00,
2013-11-27 23:46:00,67.3,60.6,30.08,NE,49,10.0,14.0,79,0.00,,FEW,1.94,0.00,VWS V14.01,2013-11-28 04:46:00,
2013-11-27 23:48:00,67.2,60.5,30.08,NE,35,6.0,17.0,79,0.00,,FEW,1.94,0.00,VWS V14.01,2013-11-28 04:48:00,
2013-11-27 23:49:00,67.2,60.5,30.08,North,5,7.0,17.0,79,0.00,,FEW,1.94,0.00,VWS V14.01,2013-11-28 04:49:00,
2013-11-27 23:50:00,67.2,60.5,30.08,NNE,22,8.0,17.0,79,0.00,,FEW,1.94,0.00,VWS V14.01,2013-11-28 04:50:00,
2013-11-27 23:51:00,67.1,60.0,30.08,NNE,12,11.0,13.0,78,0.00,,FEW,1.94,0.00,VWS V14.01,2013-11-28 04:51:00,
2013-11-27 23:53:00,67.1,60.0,30.08,NNE,28,6.0,14.0,78,0.00,,FEW,1.94,0.00,VWS V14.01,2013-11-28 04:53:00,
2013-11-27 23:55:00,67.0,60.3,30.08,NNE,20,7.0,15.0,79,0.00,,FEW,1.94,0.00,VWS V14.01,2013-11-28 04:55:00,
2013-11-27 23:56:00,67.0,60.3,30.08,North,10,6.0,15.0,79,0.00,,FEW,1.94,0.00,VWS V14.01,2013-11-28 04:56:00,
2013-11-27 23:58:00,67.0,60.3,30.08,NNW,338,6.0,15.0,79,0.00,,FEW,1.94,0.00,VWS V14.01,2013-11-28 04:58:00,